Wetterdaten: aktuell Sonntag, 02.10.2022 02:30
Datum Zeit Temp. Aussen Temp. o. S. Temp +5cm Feuchte Auss Luftdruck Regen Sonnenschein Regendauer Solar Windben Empfang
02.10.2022 02:30 12,9 C 12,2 C 8,9 C 95 % 1015,1 hPa 0,0 l/m 0 min 0 min 0 W/m 6,4 km/h (2 Bft) 95,74 %
02.10.2022 02:28 12,9 C 12,2 C 8,9 C 95 % 1015,1 hPa 0,0 l/m 0 min 0 min 0 W/m 9,7 km/h (2 Bft) 93,62 %
02.10.2022 02:26 12,9 C 12,2 C 8,9 C 95 % 1015,1 hPa 0,0 l/m 0 min 0 min 0 W/m 16,1 km/h (3 Bft) 95,74 %
02.10.2022 02:24 12,9 C 12,2 C 8,9 C 95 % 1015,1 hPa 0,0 l/m 0 min 0 min 0 W/m 12,9 km/h (3 Bft) 97,87 %
02.10.2022 02:22 12,9 C 12,2 C 8,9 C 95 % 1015,1 hPa 0,0 l/m 0 min 0 min 0 W/m 9,7 km/h (2 Bft) 97,83 %
02.10.2022 02:20 12,9 C 12,2 C 8,9 C 95 % 1015,1 hPa 0,0 l/m 0 min 0 min 0 W/m 19,3 km/h (3 Bft) 97,87 %
02.10.2022 02:18 12,8 C 12,2 C 8,9 C 95 % 1015,1 hPa 0,0 l/m 0 min 0 min 0 W/m 6,4 km/h (2 Bft) 97,87 %
02.10.2022 02:16 12,8 C 12,2 C 8,9 C 95 % 1015,0 hPa 0,0 l/m 0 min 0 min 0 W/m 9,7 km/h (2 Bft) 97,87 %
02.10.2022 02:14 12,8 C 12,2 C 8,9 C 95 % 1015,1 hPa 0,0 l/m 0 min 0 min 0 W/m 9,7 km/h (2 Bft) 97,87 %
02.10.2022 02:12 12,8 C 11,7 C 8,9 C 95 % 1015,0 hPa 0,0 l/m 0 min 0 min 0 W/m 6,4 km/h (2 Bft) 97,87 %
02.10.2022 02:10 12,8 C 11,7 C 8,9 C 95 % 1015,0 hPa 0,0 l/m 0 min 0 min 0 W/m 6,4 km/h (2 Bft) 100,00 %
02.10.2022 02:08 12,8 C 12,2 C 8,9 C 95 % 1015,0 hPa 0,0 l/m 0 min 0 min 0 W/m 9,7 km/h (2 Bft) 100,00 %
02.10.2022 02:06 12,8 C 12,2 C 8,9 C 95 % 1015,0 hPa 0,0 l/m 0 min 0 min 0 W/m 12,9 km/h (3 Bft) 100,00 %
02.10.2022 02:04 12,8 C 12,2 C 8,9 C 94 % 1015,0 hPa 0,0 l/m 0 min 0 min 0 W/m 12,9 km/h (3 Bft) 100,00 %
02.10.2022 02:02 12,8 C 12,2 C 8,9 C 94 % 1015,0 hPa 0,0 l/m 0 min 0 min 0 W/m 9,7 km/h (2 Bft) 100,00 %
02.10.2022 02:00 12,8 C 12,2 C 8,9 C 94 % 1015,0 hPa 0,0 l/m 0 min 0 min 0 W/m 16,1 km/h (3 Bft) 100,00 %
02.10.2022 01:58 12,8 C 12,2 C 8,9 C 94 % 1015,0 hPa 0,0 l/m 0 min 0 min 0 W/m 16,1 km/h (3 Bft) 100,00 %
02.10.2022 01:56 12,8 C 12,2 C 8,9 C 94 % 1015,0 hPa 0,0 l/m 0 min 0 min 0 W/m 6,4 km/h (2 Bft) 100,00 %
02.10.2022 01:54 12,8 C 11,7 C 8,9 C 94 % 1014,9 hPa 0,0 l/m 0 min 0 min 0 W/m 12,9 km/h (3 Bft) 100,00 %
02.10.2022 01:52 12,7 C 11,7 C 8,9 C 94 % 1014,9 hPa 0,0 l/m 0 min 0 min 0 W/m 6,4 km/h (2 Bft) 100,00 %
02.10.2022 01:50 12,7 C 11,7 C 8,9 C 94 % 1014,9 hPa 0,0 l/m 0 min 0 min 0 W/m 12,9 km/h (3 Bft) 100,00 %
02.10.2022 01:48 12,7 C 11,7 C 8,9 C 94 % 1015,0 hPa 0,0 l/m 0 min 0 min 0 W/m 16,1 km/h (3 Bft) 97,83 %
02.10.2022 01:46 12,7 C 11,7 C 8,9 C 94 % 1014,9 hPa 0,0 l/m 0 min 0 min 0 W/m 12,9 km/h (3 Bft) 97,87 %
02.10.2022 01:44 12,8 C 11,7 C 8,9 C 94 % 1014,9 hPa 0,0 l/m 0 min 0 min 0 W/m 6,4 km/h (2 Bft) 97,87 %
02.10.2022 01:42 12,8 C 11,7 C 8,9 C 94 % 1014,9 hPa 0,0 l/m 0 min 0 min 0 W/m 12,9 km/h (3 Bft) 97,87 %
02.10.2022 01:40 12,7 C 11,7 C 8,9 C 94 % 1014,8 hPa 0,0 l/m 0 min 0 min 0 W/m 12,9 km/h (3 Bft) 98,00 %
02.10.2022 01:38 12,7 C 11,7 C 8,9 C 94 % 1014,9 hPa 0,0 l/m 0 min 0 min 0 W/m 12,9 km/h (3 Bft) 97,14 %
02.10.2022 01:36 12,7 C 11,7 C 8,9 C 94 % 1014,9 hPa 0,0 l/m 0 min 0 min 0 W/m 16,1 km/h (3 Bft) 98,28 %
02.10.2022 01:34 12,7 C 11,7 C 8,9 C 94 % 1014,9 hPa 0,0 l/m 0 min 0 min 0 W/m 19,3 km/h (3 Bft) 97,87 %
02.10.2022 01:32 12,7 C 11,7 C 8,9 C 94 % 1014,9 hPa 0,0 l/m 0 min 0 min 0 W/m 19,3 km/h (3 Bft) 97,87 %
02.10.2022 01:30 12,7 C 11,7 C 8,9 C 94 % 1014,8 hPa 0,0 l/m 0 min 0 min 0 W/m 12,9 km/h (3 Bft) 97,87 %
02.10.2022 01:28 12,7 C 11,7 C 8,9 C 94 % 1014,8 hPa 0,0 l/m 0 min 0 min 0 W/m 12,9 km/h (3 Bft) 97,87 %
02.10.2022 01:26 12,7 C 11,7 C 8,9 C 94 % 1014,8 hPa 0,0 l/m 0 min 0 min 0 W/m 16,1 km/h (3 Bft) 97,87 %
02.10.2022 01:24 12,7 C 11,7 C 8,9 C 94 % 1014,8 hPa 0,0 l/m 0 min 0 min 0 W/m 16,1 km/h (3 Bft) 97,83 %
02.10.2022 01:22 12,6 C 11,7 C 8,9 C 94 % 1014,8 hPa 0,0 l/m 0 min 0 min 0 W/m 19,3 km/h (3 Bft) 97,87 %
02.10.2022 01:20 12,6 C 11,7 C 8,3 C 93 % 1014,8 hPa 0,0 l/m 0 min 0 min 0 W/m 12,9 km/h (3 Bft) 97,87 %
02.10.2022 01:18 12,6 C 11,7 C 8,3 C 93 % 1014,8 hPa 0,0 l/m 0 min 0 min 0 W/m 12,9 km/h (3 Bft) 95,74 %
02.10.2022 01:16 12,6 C 11,7 C 8,3 C 93 % 1014,8 hPa 0,0 l/m 0 min 0 min 0 W/m 12,9 km/h (3 Bft) 97,87 %
02.10.2022 01:14 12,5 C 11,7 C 8,3 C 93 % 1014,8 hPa 0,0 l/m 0 min 0 min 0 W/m 12,9 km/h (3 Bft) 97,87 %
02.10.2022 01:12 12,5 C 11,7 C 8,3 C 93 % 1014,8 hPa 0,0 l/m 0 min 0 min 0 W/m 12,9 km/h (3 Bft) 97,83 %
02.10.2022 01:10 12,5 C 11,7 C 8,3 C 93 % 1014,8 hPa 0,0 l/m 0 min 0 min 0 W/m 6,4 km/h (2 Bft) 97,87 %
02.10.2022 01:08 12,5 C 11,7 C 8,3 C 93 % 1014,8 hPa 0,0 l/m 0 min 0 min 0 W/m 9,7 km/h (2 Bft) 97,14 %
02.10.2022 01:06 12,5 C 11,7 C 8,3 C 93 % 1014,8 hPa 0,0 l/m 0 min 0 min 0 W/m 6,4 km/h (2 Bft) 98,31 %
02.10.2022 01:04 12,5 C 11,7 C 8,3 C 93 % 1014,8 hPa 0,0 l/m 0 min 0 min 0 W/m 6,4 km/h (2 Bft) 100,00 %
02.10.2022 01:02 12,4 C 11,7 C 8,3 C 93 % 1014,7 hPa 0,0 l/m 0 min 0 min 0 W/m 6,4 km/h (2 Bft) 97,92 %
02.10.2022 01:00 12,4 C 11,7 C 8,3 C 93 % 1014,7 hPa 0,0 l/m 0 min 0 min 0 W/m 12,9 km/h (3 Bft) 95,65 %
02.10.2022 00:58 12,4 C 11,7 C 8,3 C 93 % 1014,7 hPa 0,0 l/m 0 min 0 min 0 W/m 12,9 km/h (3 Bft) 100,00 %
02.10.2022 00:56 12,4 C 11,7 C 8,3 C 93 % 1014,7 hPa 0,0 l/m 0 min 0 min 0 W/m 9,7 km/h (2 Bft) 100,00 %
02.10.2022 00:54 12,3 C 11,7 C 8,3 C 93 % 1014,7 hPa 0,0 l/m 0 min 0 min 0 W/m 6,4 km/h (2 Bft) 97,87 %
02.10.2022 00:52 12,3 C 11,7 C 8,3 C 93 % 1014,7 hPa 0,0 l/m 0 min 0 min 0 W/m 12,9 km/h (3 Bft) 95,74 %
02.10.2022 00:50 12,3 C 11,7 C 8,3 C 93 % 1014,8 hPa 0,0 l/m 0 min 0 min 0 W/m 12,9 km/h (3 Bft) 95,74 %
02.10.2022 00:48 12,3 C 11,7 C 8,3 C 93 % 1014,7 hPa 0,0 l/m 0 min 0 min 0 W/m 12,9 km/h (3 Bft) 97,83 %
02.10.2022 00:46 12,3 C 11,7 C 8,3 C 92 % 1014,8 hPa 0,0 l/m 0 min 0 min 0 W/m 12,9 km/h (3 Bft) 95,74 %
02.10.2022 00:44 12,2 C 11,7 C 8,3 C 92 % 1014,7 hPa 0,0 l/m 0 min 0 min 0 W/m 9,7 km/h (2 Bft) 97,87 %
02.10.2022 00:42 12,2 C 11,7 C 8,3 C 92 % 1014,7 hPa 0,0 l/m 0 min 0 min 0 W/m 12,9 km/h (3 Bft) 97,87 %
02.10.2022 00:40 12,2 C 11,7 C 8,3 C 92 % 1014,8 hPa 0,0 l/m 0 min 0 min 0 W/m 12,9 km/h (3 Bft) 100,00 %
02.10.2022 00:38 12,2 C 11,7 C 8,3 C 92 % 1014,8 hPa 0,0 l/m 0 min 0 min 0 W/m 6,4 km/h (2 Bft) 95,74 %
02.10.2022 00:36 12,1 C 11,7 C 8,3 C 92 % 1014,7 hPa 0,0 l/m 0 min 0 min 0 W/m 6,4 km/h (2 Bft) 98,28 %
02.10.2022 00:34 12,1 C 11,1 C 8,3 C 92 % 1014,7 hPa 0,0 l/m 0 min 0 min 0 W/m 6,4 km/h (2 Bft) 97,87 %
02.10.2022 00:32 12,1 C 11,1 C 8,3 C 92 % 1014,7 hPa 0,0 l/m 0 min 0 min 0 W/m 9,7 km/h (2 Bft) 97,87 %
02.10.2022 00:30 12,0 C 11,1 C 8,3 C 92 % 1014,7 hPa 0,0 l/m 0 min 0 min 0 W/m 6,4 km/h (2 Bft) 95,74 %
02.10.2022 00:28 12,0 C 11,1 C 8,3 C 92 % 1014,7 hPa 0,0 l/m 0 min 0 min 0 W/m 6,4 km/h (2 Bft) 95,74 %
02.10.2022 00:26 11,9 C 11,1 C 8,3 C 92 % 1014,7 hPa 0,0 l/m 0 min 0 min 0 W/m 12,9 km/h (3 Bft) 97,87 %
02.10.2022 00:24 11,9 C 11,1 C 8,3 C 92 % 1014,6 hPa 0,0 l/m 0 min 0 min 0 W/m 9,7 km/h (2 Bft) 97,83 %
02.10.2022 00:22 11,9 C 11,1 C 8,3 C 92 % 1014,6 hPa 0,0 l/m 0 min 0 min 0 W/m 12,9 km/h (3 Bft) 97,87 %
02.10.2022 00:20 11,9 C 11,1 C 7,8 C 92 % 1014,6 hPa 0,0 l/m 0 min 0 min 0 W/m 12,9 km/h (3 Bft) 97,87 %
02.10.2022 00:18 11,9 C 11,1 C 7,8 C 92 % 1014,5 hPa 0,0 l/m 0 min 0 min 0 W/m 6,4 km/h (2 Bft) 93,62 %
02.10.2022 00:16 11,9 C 11,1 C 7,8 C 92 % 1014,5 hPa 0,0 l/m 0 min 0 min 0 W/m 19,3 km/h (3 Bft) 97,87 %
02.10.2022 00:14 11,8 C 11,1 C 7,8 C 92 % 1014,5 hPa 0,0 l/m 0 min 0 min 0 W/m 9,7 km/h (2 Bft) 95,74 %
02.10.2022 00:12 11,9 C 11,1 C 7,8 C 92 % 1014,5 hPa 0,0 l/m 0 min 0 min 0 W/m 12,9 km/h (3 Bft) 93,48 %
02.10.2022 00:10 11,9 C 11,1 C 7,8 C 92 % 1014,4 hPa 0,0 l/m 0 min 0 min 0 W/m 6,4 km/h (2 Bft) 98,11 %
02.10.2022 00:08 11,9 C 11,1 C 7,8 C 92 % 1014,4 hPa 0,0 l/m 0 min 0 min 0 W/m 9,7 km/h (2 Bft) 97,56 %
02.10.2022 00:04 11,9 C 11,1 C 7,8 C 92 % 1014,4 hPa 0,0 l/m 0 min 0 min 0 W/m 6,4 km/h (2 Bft) 97,87 %
02.10.2022 00:02 11,9 C 11,1 C 7,8 C 92 % 1014,3 hPa 0,0 l/m 0 min 0 min 0 W/m 9,7 km/h (2 Bft) 95,24 %
02.10.2022 00:00 11,9 C 11,1 C 7,8 C 92 % 1014,3 hPa 0,0 l/m 0 min 0 min 0 W/m 12,9 km/h (3 Bft) 97,83 %
01.10.2022 23:58 11,9 C 11,1 C 7,8 C 92 % 1014,3 hPa 0,0 l/m 0 min 0 min 0 W/m 6,4 km/h (2 Bft) 97,87 %
01.10.2022 23:56 11,9 C 11,1 C 7,8 C 92 % 1014,3 hPa 0,0 l/m 0 min 0 min 0 W/m 9,7 km/h (2 Bft) 95,74 %
01.10.2022 23:54 12,0 C 11,1 C 7,8 C 92 % 1014,3 hPa 0,0 l/m 0 min 0 min 0 W/m 9,7 km/h (2 Bft) 97,87 %
01.10.2022 23:52 12,0 C 11,1 C 7,8 C 92 % 1014,3 hPa 0,0 l/m 0 min 0 min 0 W/m 6,4 km/h (2 Bft) 95,74 %
01.10.2022 23:50 12,0 C 11,1 C 7,8 C 92 % 1014,3 hPa 0,0 l/m 0 min 0 min 0 W/m 9,7 km/h (2 Bft) 97,87 %
01.10.2022 23:48 12,0 C 11,1 C 7,8 C 92 % 1014,3 hPa 0,0 l/m 0 min 0 min 0 W/m 6,4 km/h (2 Bft) 97,83 %
01.10.2022 23:46 12,1 C 11,1 C 7,8 C 92 % 1014,3 hPa 0,0 l/m 0 min 0 min 0 W/m 6,4 km/h (2 Bft) 97,87 %
01.10.2022 23:44 12,1 C 11,1 C 8,3 C 92 % 1014,2 hPa 0,0 l/m 0 min 0 min 0 W/m 6,4 km/h (2 Bft) 95,74 %
01.10.2022 23:42 12,1 C 11,1 C 8,3 C 92 % 1014,2 hPa 0,0 l/m 0 min 0 min 0 W/m 3,2 km/h (1 Bft) 97,87 %
01.10.2022 23:40 12,1 C 11,1 C 8,3 C 92 % 1014,2 hPa 0,0 l/m 0 min 0 min 0 W/m 6,4 km/h (2 Bft) 97,87 %
01.10.2022 23:38 12,1 C 11,7 C 8,3 C 92 % 1014,2 hPa 0,0 l/m 0 min 0 min 0 W/m 6,4 km/h (2 Bft) 97,87 %
01.10.2022 23:36 12,1 C 11,7 C 8,3 C 92 % 1014,2 hPa 0,0 l/m 0 min 0 min 0 W/m 12,9 km/h (3 Bft) 97,83 %
01.10.2022 23:34 12,1 C 11,1 C 8,3 C 92 % 1014,2 hPa 0,0 l/m 0 min 0 min 0 W/m 12,9 km/h (3 Bft) 95,74 %
01.10.2022 23:32 12,1 C 11,1 C 8,3 C 92 % 1014,2 hPa 0,0 l/m 0 min 0 min 0 W/m 9,7 km/h (2 Bft) 97,87 %
01.10.2022 23:30 12,1 C 11,1 C 8,3 C 92 % 1014,2 hPa 0,0 l/m 0 min 0 min 0 W/m 9,7 km/h (2 Bft) 97,87 %
01.10.2022 23:28 12,1 C 11,7 C 8,3 C 93 % 1014,1 hPa 0,0 l/m 0 min 0 min 0 W/m 16,1 km/h (3 Bft) 97,87 %
01.10.2022 23:26 12,1 C 11,1 C 8,3 C 93 % 1014,1 hPa 0,0 l/m 0 min 0 min 0 W/m 9,7 km/h (2 Bft) 100,00 %
01.10.2022 23:24 12,0 C 11,1 C 8,3 C 93 % 1014,1 hPa 0,0 l/m 0 min 0 min 0 W/m 12,9 km/h (3 Bft) 100,00 %
01.10.2022 23:22 12,0 C 11,1 C 7,8 C 93 % 1014,1 hPa 0,0 l/m 0 min 0 min 0 W/m 12,9 km/h (3 Bft) 95,74 %
01.10.2022 23:20 12,0 C 11,1 C 7,8 C 93 % 1014,0 hPa 0,0 l/m 0 min 0 min 0 W/m 3,2 km/h (1 Bft) 97,87 %
01.10.2022 23:18 12,0 C 11,1 C 8,3 C 93 % 1014,0 hPa 0,0 l/m 0 min 0 min 0 W/m 12,9 km/h (3 Bft) 97,96 %
01.10.2022 23:16 12,0 C 11,1 C 8,3 C 93 % 1014,0 hPa 0,0 l/m 0 min 0 min 0 W/m 9,7 km/h (2 Bft) 97,87 %
01.10.2022 23:14 12,0 C 11,1 C 7,8 C 93 % 1014,0 hPa 0,0 l/m 0 min 0 min 0 W/m 9,7 km/h (2 Bft) 95,74 %
01.10.2022 23:12 11,9 C 11,1 C 7,8 C 93 % 1013,9 hPa 0,0 l/m 0 min 0 min 0 W/m 9,7 km/h (2 Bft) 95,65 %
01.10.2022 23:10 11,9 C 11,1 C 7,8 C 93 % 1014,0 hPa 0,0 l/m 0 min 0 min 0 W/m 12,9 km/h (3 Bft) 97,87 %
01.10.2022 23:08 11,9 C 11,1 C 7,8 C 92 % 1013,9 hPa 0,0 l/m 0 min 0 min 0 W/m 6,4 km/h (2 Bft) 97,87 %
01.10.2022 23:06 11,9 C 11,1 C 7,8 C 92 % 1013,9 hPa 0,0 l/m 0 min 0 min 0 W/m 12,9 km/h (3 Bft) 97,87 %
01.10.2022 23:04 11,9 C 11,1 C 7,8 C 92 % 1013,8 hPa 0,0 l/m 0 min 0 min 0 W/m 16,1 km/h (3 Bft) 94,00 %
01.10.2022 23:02 11,9 C 11,1 C 7,8 C 92 % 1013,9 hPa 0,0 l/m 0 min 0 min 0 W/m 6,4 km/h (2 Bft) 97,56 %
01.10.2022 23:00 11,9 C 11,1 C 7,8 C 92 % 1013,8 hPa 0,0 l/m 0 min 0 min 0 W/m 3,2 km/h (1 Bft) 91,49 %
01.10.2022 22:58 11,9 C 10,6 C 7,8 C 92 % 1013,8 hPa 0,0 l/m 0 min 0 min 0 W/m 6,4 km/h (2 Bft) 95,74 %
01.10.2022 22:56 11,9 C 10,6 C 7,8 C 92 % 1013,7 hPa 0,0 l/m 0 min 0 min 0 W/m 6,4 km/h (2 Bft) 95,74 %
01.10.2022 22:54 11,9 C 10,6 C 7,8 C 92 % 1013,7 hPa 0,0 l/m 0 min 0 min 0 W/m 3,2 km/h (1 Bft) 95,74 %
01.10.2022 22:52 11,9 C 11,1 C 7,8 C 92 % 1013,7 hPa 0,0 l/m 0 min 0 min 0 W/m 3,2 km/h (1 Bft) 95,74 %
01.10.2022 22:50 11,9 C 11,1 C 7,8 C 92 % 1013,7 hPa 0,0 l/m 0 min 0 min 0 W/m 3,2 km/h (1 Bft) 95,83 %
01.10.2022 22:48 11,9 C 11,1 C 7,8 C 92 % 1013,6 hPa 0,0 l/m 0 min 0 min 0 W/m 3,2 km/h (1 Bft) 95,74 %
01.10.2022 22:46 11,9 C 10,6 C 7,8 C 92 % 1013,6 hPa 0,0 l/m 0 min 0 min 0 W/m 3,2 km/h (1 Bft) 94,00 %
01.10.2022 22:44 11,9 C 10,6 C 7,8 C 92 % 1013,6 hPa 0,0 l/m 0 min 0 min 0 W/m 3,2 km/h (1 Bft) 95,74 %
01.10.2022 22:42 11,9 C 10,6 C 7,8 C 91 % 1013,6 hPa 0,0 l/m 0 min 0 min 0 W/m 3,2 km/h (1 Bft) 95,74 %
01.10.2022 22:40 11,9 C 10,6 C 7,8 C 91 % 1013,5 hPa 0,0 l/m 0 min 0 min 0 W/m 0,0 km/h (0 Bft) 97,87 %
01.10.2022 22:38 12,0 C 11,1 C 7,8 C 91 % 1013,6 hPa 0,0 l/m 0 min 0 min 0 W/m 3,2 km/h (1 Bft) 97,14 %
01.10.2022 22:36 12,0 C 11,1 C 7,8 C 91 % 1013,5 hPa 0,0 l/m 0 min 0 min 0 W/m 3,2 km/h (1 Bft) 98,28 %
01.10.2022 22:34 12,0 C 11,1 C 7,8 C 91 % 1013,5 hPa 0,0 l/m 0 min 0 min 0 W/m 6,4 km/h (2 Bft) 93,62 %
01.10.2022 22:32 12,0 C 11,1 C 7,8 C 91 % 1013,4 hPa 0,0 l/m 0 min 0 min 0 W/m 3,2 km/h (1 Bft) 97,62 %
01.10.2022 22:30 12,0 C 10,6 C 7,8 C 91 % 1013,5 hPa 0,0 l/m 0 min 0 min 0 W/m 3,2 km/h (1 Bft) 97,87 %
01.10.2022 22:28 12,1 C 10,6 C 7,8 C 91 % 1013,5 hPa 0,0 l/m 0 min 0 min 0 W/m 3,2 km/h (1 Bft) 100,00 %
01.10.2022 22:26 12,1 C 10,6 C 7,2 C 91 % 1013,5 hPa 0,0 l/m 0 min 0 min 0 W/m 6,4 km/h (2 Bft) 97,83 %
01.10.2022 22:24 12,1 C 10,6 C 7,2 C 91 % 1013,4 hPa 0,0 l/m 0 min 0 min 0 W/m 0,0 km/h (0 Bft) 100,00 %
01.10.2022 22:22 12,1 C 10,6 C 7,8 C 91 % 1013,3 hPa 0,0 l/m 0 min 0 min 0 W/m 6,4 km/h (2 Bft) 100,00 %
01.10.2022 22:20 12,1 C 10,6 C 7,2 C 91 % 1013,4 hPa 0,0 l/m 0 min 0 min 0 W/m 0,0 km/h (0 Bft) 100,00 %
01.10.2022 22:18 12,1 C 10,6 C 7,2 C 90 % 1013,4 hPa 0,0 l/m 0 min 0 min 0 W/m 3,2 km/h (1 Bft) 100,00 %
01.10.2022 22:16 12,2 C 10,6 C 7,2 C 90 % 1013,3 hPa 0,0 l/m 0 min 0 min 0 W/m 0,0 km/h (0 Bft) 100,00 %
01.10.2022 22:14 12,2 C 10,6 C 7,8 C 90 % 1013,3 hPa 0,0 l/m 0 min 0 min 0 W/m 3,2 km/h (1 Bft) 100,00 %
01.10.2022 22:12 12,2 C 10,6 C 7,8 C 90 % 1013,4 hPa 0,0 l/m 0 min 0 min 0 W/m 0,0 km/h (0 Bft) 97,87 %
01.10.2022 22:10 12,2 C 11,1 C 7,8 C 90 % 1013,3 hPa 0,0 l/m 0 min 0 min 0 W/m 3,2 km/h (1 Bft) 100,00 %
01.10.2022 22:08 12,3 C 11,1 C 7,8 C 90 % 1013,3 hPa 0,0 l/m 0 min 0 min 0 W/m 3,2 km/h (1 Bft) 100,00 %
01.10.2022 22:06 12,3 C 11,1 C 7,8 C 90 % 1013,2 hPa 0,0 l/m 0 min 0 min 0 W/m 0,0 km/h (0 Bft) 100,00 %
01.10.2022 22:04 12,3 C 11,1 C 7,8 C 90 % 1013,2 hPa 0,0 l/m 0 min 0 min 0 W/m 3,2 km/h (1 Bft) 100,00 %
01.10.2022 22:02 12,3 C 11,1 C 7,8 C 90 % 1013,2 hPa 0,0 l/m 0 min 0 min 0 W/m 3,2 km/h (1 Bft) 97,83 %
01.10.2022 22:00 12,3 C 11,1 C 7,8 C 90 % 1013,2 hPa 0,0 l/m 0 min 0 min 0 W/m 3,2 km/h (1 Bft) 100,00 %
01.10.2022 21:58 12,4 C 11,1 C 7,8 C 90 % 1013,2 hPa 0,0 l/m 0 min 0 min 0 W/m 3,2 km/h (1 Bft) 100,00 %
01.10.2022 21:56 12,4 C 11,1 C 7,8 C 90 % 1013,2 hPa 0,0 l/m 0 min 0 min 0 W/m 3,2 km/h (1 Bft) 100,00 %
01.10.2022 21:54 12,4 C 11,1 C 7,8 C 90 % 1013,1 hPa 0,0 l/m 0 min 0 min 0 W/m 6,4 km/h (2 Bft) 100,00 %
01.10.2022 21:52 12,4 C 11,1 C 7,8 C 89 % 1013,1 hPa 0,0 l/m 0 min 0 min 0 W/m 0,0 km/h (0 Bft) 97,83 %
01.10.2022 21:50 12,4 C 11,1 C 7,8 C 89 % 1013,1 hPa 0,0 l/m 0 min 0 min 0 W/m 0,0 km/h (0 Bft) 100,00 %
01.10.2022 21:48 12,5 C 11,1 C 7,8 C 89 % 1013,1 hPa 0,0 l/m 0 min 0 min 0 W/m 0,0 km/h (0 Bft) 100,00 %
01.10.2022 21:46 12,6 C 11,1 C 8,3 C 89 % 1013,0 hPa 0,0 l/m 0 min 0 min 0 W/m 0,0 km/h (0 Bft) 100,00 %
01.10.2022 21:44 12,6 C 11,1 C 8,3 C 89 % 1013,0 hPa 0,0 l/m 0 min 0 min 0 W/m 6,4 km/h (2 Bft) 100,00 %
01.10.2022 21:42 12,6 C 11,1 C 8,3 C 89 % 1013,0 hPa 0,0 l/m 0 min 0 min 0 W/m 0,0 km/h (0 Bft) 100,00 %
01.10.2022 21:40 12,6 C 11,7 C 8,3 C 89 % 1013,0 hPa 0,0 l/m 0 min 0 min 0 W/m 3,2 km/h (1 Bft) 100,00 %
01.10.2022 21:38 12,6 C 11,7 C 8,3 C 89 % 1013,0 hPa 0,0 l/m 0 min 0 min 0 W/m 3,2 km/h (1 Bft) 100,00 %
01.10.2022 21:36 12,7 C 11,7 C 8,3 C 89 % 1013,0 hPa 0,0 l/m 0 min 0 min 0 W/m 6,4 km/h (2 Bft) 100,00 %
01.10.2022 21:34 12,7 C 11,7 C 8,3 C 89 % 1012,9 hPa 0,0 l/m 0 min 0 min 0 W/m 3,2 km/h (1 Bft) 100,00 %
01.10.2022 21:32 12,7 C 11,7 C 8,3 C 89 % 1012,9 hPa 0,0 l/m 0 min 0 min 0 W/m 3,2 km/h (1 Bft) 97,87 %
01.10.2022 21:30 12,7 C 11,7 C 8,3 C 89 % 1012,9 hPa 0,0 l/m 0 min 0 min 0 W/m 3,2 km/h (1 Bft) 100,00 %
01.10.2022 21:28 12,8 C 11,7 C 8,3 C 89 % 1012,9 hPa 0,0 l/m 0 min 0 min 0 W/m 3,2 km/h (1 Bft) 100,00 %
01.10.2022 21:26 12,8 C 11,7 C 8,3 C 88 % 1012,9 hPa 0,0 l/m 0 min 0 min 0 W/m 6,4 km/h (2 Bft) 66,67 %
01.10.2022 21:24 12,8 C 11,7 C 8,3 C 88 % 1012,9 hPa 0,0 l/m 0 min 0 min 0 W/m 3,2 km/h (1 Bft) 89,36 %
01.10.2022 21:22 12,8 C 11,7 C 8,3 C 88 % 1012,8 hPa 0,0 l/m 0 min 0 min 0 W/m 6,4 km/h (2 Bft) 100,00 %
01.10.2022 21:20 12,9 C 11,7 C 8,3 C 88 % 1012,8 hPa 0,0 l/m 0 min 0 min 0 W/m 3,2 km/h (1 Bft) 95,24 %
01.10.2022 21:18 12,9 C 11,7 C 8,3 C 88 % 1012,8 hPa 0,0 l/m 0 min 0 min 0 W/m 3,2 km/h (1 Bft) 100,00 %
01.10.2022 21:16 12,9 C 11,7 C 8,3 C 88 % 1012,7 hPa 0,0 l/m 0 min 0 min 0 W/m 3,2 km/h (1 Bft) 100,00 %
01.10.2022 21:14 12,9 C 11,7 C 8,3 C 88 % 1012,7 hPa 0,0 l/m 0 min 0 min 0 W/m 3,2 km/h (1 Bft) 97,87 %
01.10.2022 21:12 12,9 C 11,7 C 8,3 C 88 % 1012,7 hPa 0,0 l/m 0 min 0 min 0 W/m 3,2 km/h (1 Bft) 95,74 %
01.10.2022 21:10 13,0 C 11,7 C 8,3 C 88 % 1012,6 hPa 0,0 l/m 0 min 0 min 0 W/m 3,2 km/h (1 Bft) 95,92 %
01.10.2022 21:08 13,0 C 11,7 C 8,3 C 88 % 1012,7 hPa 0,0 l/m 0 min 0 min 0 W/m 3,2 km/h (1 Bft) 95,74 %
01.10.2022 21:06 13,0 C 11,7 C 8,3 C 87 % 1012,6 hPa 0,0 l/m 0 min 0 min 0 W/m 3,2 km/h (1 Bft) 91,49 %
01.10.2022 21:04 13,1 C 11,7 C 8,3 C 87 % 1012,6 hPa 0,0 l/m 0 min 0 min 0 W/m 6,4 km/h (2 Bft) 93,48 %
01.10.2022 21:02 13,1 C 11,7 C 8,3 C 87 % 1012,6 hPa 0,0 l/m 0 min 0 min 0 W/m 9,7 km/h (2 Bft) 91,49 %
01.10.2022 21:00 13,1 C 11,7 C 8,3 C 87 % 1012,5 hPa 0,0 l/m 0 min 0 min 0 W/m 3,2 km/h (1 Bft) 92,00 %
01.10.2022 20:58 13,2 C 11,7 C 8,3 C 86 % 1012,5 hPa 0,0 l/m 0 min 0 min 0 W/m 3,2 km/h (1 Bft) 92,86 %
01.10.2022 20:56 13,2 C 11,7 C 8,3 C 86 % 1012,5 hPa 0,0 l/m 0 min 0 min 0 W/m 3,2 km/h (1 Bft) 93,62 %
01.10.2022 20:54 13,2 C 11,7 C 8,3 C 86 % 1012,5 hPa 0,0 l/m 0 min 0 min 0 W/m 0,0 km/h (0 Bft) 93,62 %
01.10.2022 20:52 13,3 C 11,7 C 8,3 C 86 % 1012,4 hPa 0,0 l/m 0 min 0 min 0 W/m 0,0 km/h (0 Bft) 93,48 %
01.10.2022 20:50 13,3 C 11,7 C 8,3 C 86 % 1012,3 hPa 0,0 l/m 0 min 0 min 0 W/m 0,0 km/h (0 Bft) 93,62 %
01.10.2022 20:48 13,4 C 11,7 C 8,3 C 86 % 1012,4 hPa 0,0 l/m 0 min 0 min 0 W/m 0,0 km/h (0 Bft) 91,49 %
01.10.2022 20:46 13,4 C 11,7 C 8,3 C 85 % 1012,3 hPa 0,0 l/m 0 min 0 min 0 W/m 0,0 km/h (0 Bft) 89,80 %
01.10.2022 20:44 13,5 C 12,2 C 8,3 C 85 % 1012,3 hPa 0,0 l/m 0 min 0 min 0 W/m 0,0 km/h (0 Bft) 93,62 %
01.10.2022 20:42 13,6 C 12,2 C 8,9 C 85 % 1012,3 hPa 0,0 l/m 0 min 0 min 0 W/m 0,0 km/h (0 Bft) 91,84 %
01.10.2022 20:40 13,6 C 12,2 C 8,9 C 85 % 1012,2 hPa 0,0 l/m 0 min 0 min 0 W/m 0,0 km/h (0 Bft) 95,74 %
01.10.2022 20:38 13,6 C 12,2 C 8,9 C 85 % 1012,2 hPa 0,0 l/m 0 min 0 min 0 W/m 0,0 km/h (0 Bft) 94,29 %
01.10.2022 20:36 13,6 C 12,2 C 8,9 C 85 % 1012,2 hPa 0,0 l/m 0 min 0 min 0 W/m 3,2 km/h (1 Bft) 96,61 %
01.10.2022 20:34 13,7 C 12,2 C 8,9 C 85 % 1012,1 hPa 0,0 l/m 0 min 0 min 0 W/m 3,2 km/h (1 Bft) 95,74 %
01.10.2022 20:32 13,7 C 12,2 C 8,9 C 84 % 1012,1 hPa 0,0 l/m 0 min 0 min 0 W/m 6,4 km/h (2 Bft) 91,49 %
01.10.2022 20:30 13,7 C 12,2 C 8,9 C 84 % 1012,1 hPa 0,0 l/m 0 min 0 min 0 W/m 3,2 km/h (1 Bft) 95,65 %
01.10.2022 20:28 13,8 C 12,2 C 8,9 C 84 % 1012,0 hPa 0,0 l/m 0 min 0 min 0 W/m 3,2 km/h (1 Bft) 95,74 %
01.10.2022 20:26 13,8 C 12,2 C 8,9 C 84 % 1012,0 hPa 0,0 l/m 0 min 0 min 0 W/m 3,2 km/h (1 Bft) 95,24 %
01.10.2022 20:24 13,8 C 12,2 C 8,9 C 84 % 1012,0 hPa 0,0 l/m 0 min 0 min 0 W/m 3,2 km/h (1 Bft) 93,62 %
01.10.2022 20:22 13,8 C 12,2 C 8,9 C 83 % 1012,0 hPa 0,0 l/m 0 min 0 min 0 W/m 3,2 km/h (1 Bft) 97,87 %
01.10.2022 20:20 13,9 C 12,8 C 8,9 C 83 % 1011,9 hPa 0,0 l/m 0 min 0 min 0 W/m 3,2 km/h (1 Bft) 97,87 %
01.10.2022 20:18 13,9 C 12,8 C 8,9 C 83 % 1011,9 hPa 0,0 l/m 0 min 0 min 0 W/m 6,4 km/h (2 Bft) 97,87 %
01.10.2022 20:16 14,0 C 12,8 C 8,9 C 83 % 1011,9 hPa 0,0 l/m 0 min 0 min 0 W/m 3,2 km/h (1 Bft) 97,83 %
01.10.2022 20:14 14,1 C 12,8 C 8,9 C 82 % 1011,9 hPa 0,0 l/m 0 min 0 min 0 W/m 3,2 km/h (1 Bft) 97,87 %
01.10.2022 20:12 14,1 C 12,2 C 8,9 C 82 % 1011,8 hPa 0,0 l/m 0 min 0 min 0 W/m 3,2 km/h (1 Bft) 100,00 %
01.10.2022 20:10 14,2 C 12,8 C 8,9 C 82 % 1011,8 hPa 0,0 l/m 0 min 0 min 0 W/m 3,2 km/h (1 Bft) 97,87 %
01.10.2022 20:08 14,3 C 12,8 C 8,9 C 82 % 1011,8 hPa 0,0 l/m 0 min 0 min 0 W/m 3,2 km/h (1 Bft) 100,00 %
01.10.2022 20:06 14,3 C 12,8 C 9,4 C 82 % 1011,8 hPa 0,0 l/m 0 min 0 min 0 W/m 3,2 km/h (1 Bft) 100,00 %
01.10.2022 20:04 14,3 C 12,8 C 9,4 C 81 % 1011,7 hPa 0,0 l/m 0 min 0 min 0 W/m 3,2 km/h (1 Bft) 97,83 %
01.10.2022 20:02 14,3 C 12,8 C 9,4 C 81 % 1011,7 hPa 0,0 l/m 0 min 0 min 0 W/m 6,4 km/h (2 Bft) 97,87 %
01.10.2022 20:00 14,3 C 13,3 C 9,4 C 81 % 1011,6 hPa 0,0 l/m 0 min 0 min 0 W/m 6,4 km/h (2 Bft) 100,00 %
01.10.2022 19:58 14,4 C 13,3 C 9,4 C 81 % 1011,5 hPa 0,0 l/m 0 min 0 min 0 W/m 6,4 km/h (2 Bft) 100,00 %
01.10.2022 19:56 14,4 C 13,3 C 9,4 C 81 % 1011,5 hPa 0,0 l/m 0 min 0 min 0 W/m 3,2 km/h (1 Bft) 100,00 %
01.10.2022 19:54 14,4 C 13,3 C 9,4 C 81 % 1011,4 hPa 0,0 l/m 0 min 0 min 0 W/m 6,4 km/h (2 Bft) 97,83 %
01.10.2022 19:52 14,5 C 13,3 C 10,0 C 80 % 1011,4 hPa 0,0 l/m 0 min 0 min 0 W/m 6,4 km/h (2 Bft) 100,00 %
01.10.2022 19:50 14,5 C 13,3 C 10,0 C 80 % 1011,4 hPa 0,0 l/m 0 min 0 min 0 W/m 12,9 km/h (3 Bft) 100,00 %
01.10.2022 19:48 14,6 C 13,3 C 10,0 C 80 % 1011,3 hPa 0,0 l/m 0 min 0 min 0 W/m 12,9 km/h (3 Bft) 100,00 %
01.10.2022 19:46 14,6 C 13,3 C 10,0 C 80 % 1011,2 hPa 0,0 l/m 0 min 0 min 0 W/m 6,4 km/h (2 Bft) 98,00 %
01.10.2022 19:44 14,6 C 13,9 C 10,0 C 80 % 1011,2 hPa 0,0 l/m 0 min 0 min 0 W/m 12,9 km/h (3 Bft) 100,00 %
01.10.2022 19:42 14,7 C 13,9 C 10,0 C 80 % 1011,1 hPa 0,0 l/m 0 min 0 min 0 W/m 16,1 km/h (3 Bft) 100,00 %
01.10.2022 19:40 14,7 C 13,9 C 10,0 C 79 % 1011,0 hPa 0,0 l/m 0 min 0 min 0 W/m 12,9 km/h (3 Bft) 100,00 %
01.10.2022 19:38 14,7 C 13,9 C 10,0 C 79 % 1011,0 hPa 0,0 l/m 0 min 0 min 0 W/m 19,3 km/h (3 Bft) 100,00 %
01.10.2022 19:36 14,7 C 13,9 C 10,0 C 79 % 1011,0 hPa 0,0 l/m 0 min 0 min 0 W/m 12,9 km/h (3 Bft) 100,00 %
01.10.2022 19:34 14,7 C 13,9 C 10,0 C 79 % 1010,9 hPa 0,0 l/m 0 min 0 min 0 W/m 12,9 km/h (3 Bft) 100,00 %
01.10.2022 19:32 14,7 C 13,9 C 10,0 C 79 % 1010,9 hPa 0,0 l/m 0 min 0 min 0 W/m 16,1 km/h (3 Bft) 97,87 %
01.10.2022 19:30 14,8 C 13,9 C 9,4 C 79 % 1010,9 hPa 0,0 l/m 0 min 0 min 0 W/m 16,1 km/h (3 Bft) 100,00 %
01.10.2022 19:28 14,8 C 13,9 C 10,0 C 78 % 1010,8 hPa 0,0 l/m 0 min 0 min 0 W/m 9,7 km/h (2 Bft) 100,00 %
01.10.2022 19:26 14,8 C 13,9 C 9,4 C 78 % 1010,8 hPa 0,0 l/m 0 min 0 min 0 W/m 6,4 km/h (2 Bft) 97,87 %
01.10.2022 19:24 14,8 C 13,9 C 9,4 C 78 % 1010,7 hPa 0,0 l/m 0 min 0 min 0 W/m 12,9 km/h (3 Bft) 100,00 %
01.10.2022 19:22 14,9 C 13,9 C 9,4 C 78 % 1010,7 hPa 0,0 l/m 0 min 0 min 0 W/m 12,9 km/h (3 Bft) 92,86 %
01.10.2022 19:20 14,9 C 13,9 C 9,4 C 78 % 1010,7 hPa 0,0 l/m 0 min 0 min 0 W/m 12,9 km/h (3 Bft) 97,87 %
01.10.2022 19:18 15,0 C 13,9 C 9,4 C 78 % 1010,6 hPa 0,0 l/m 0 min 0 min 0 W/m 6,4 km/h (2 Bft) 95,65 %
01.10.2022 19:16 15,1 C 13,9 C 10,0 C 77 % 1010,6 hPa 0,0 l/m 0 min 0 min 0 W/m 6,4 km/h (2 Bft) 97,96 %
01.10.2022 19:14 15,1 C 13,9 C 10,0 C 77 % 1010,5 hPa 0,0 l/m 0 min 0 min 0 W/m 9,7 km/h (2 Bft) 95,74 %
01.10.2022 19:12 15,1 C 13,9 C 10,0 C 77 % 1010,5 hPa 0,0 l/m 0 min 0 min 3 W/m 9,7 km/h (2 Bft) 98,00 %
01.10.2022 19:10 15,1 C 13,9 C 10,0 C 77 % 1010,5 hPa 0,0 l/m 0 min 0 min 5 W/m 12,9 km/h (3 Bft) 95,24 %
01.10.2022 19:08 15,1 C 13,9 C 10,0 C 77 % 1010,4 hPa 0,0 l/m 0 min 0 min 6 W/m 9,7 km/h (2 Bft) 97,87 %
01.10.2022 19:06 15,2 C 13,9 C 10,0 C 77 % 1010,4 hPa 0,0 l/m 0 min 0 min 8 W/m 12,9 km/h (3 Bft) 97,83 %
01.10.2022 19:04 15,2 C 13,9 C 10,0 C 77 % 1010,4 hPa 0,0 l/m 0 min 0 min 11 W/m 16,1 km/h (3 Bft) 97,87 %
01.10.2022 19:02 15,3 C 14,4 C 10,0 C 77 % 1010,3 hPa 0,0 l/m 0 min 0 min 12 W/m 9,7 km/h (2 Bft) 97,87 %
01.10.2022 19:00 15,3 C 14,4 C 10,0 C 78 % 1010,2 hPa 0,0 l/m 0 min 0 min 13 W/m 12,9 km/h (3 Bft) 97,87 %
01.10.2022 18:58 15,3 C 14,4 C 10,0 C 78 % 1010,2 hPa 0,0 l/m 0 min 0 min 14 W/m 16,1 km/h (3 Bft) 97,87 %
01.10.2022 18:56 15,4 C 14,4 C 10,0 C 78 % 1010,1 hPa 0,0 l/m 0 min 0 min 14 W/m 6,4 km/h (2 Bft) 97,87 %
01.10.2022 18:54 15,4 C 14,4 C 10,0 C 78 % 1010,1 hPa 0,0 l/m 0 min 0 min 14 W/m 9,7 km/h (2 Bft) 97,92 %
01.10.2022 18:52 15,4 C 14,4 C 10,0 C 78 % 1010,0 hPa 0,0 l/m 0 min 0 min 16 W/m 12,9 km/h (3 Bft) 97,87 %
01.10.2022 18:50 15,4 C 14,4 C 9,4 C 78 % 1010,0 hPa 0,0 l/m 0 min 0 min 16 W/m 25,7 km/h (4 Bft) 94,00 %
01.10.2022 18:48 15,4 C 14,4 C 9,4 C 78 % 1010,0 hPa 0,0 l/m 0 min 0 min 18 W/m 19,3 km/h (3 Bft) 97,87 %
01.10.2022 18:46 15,4 C 14,4 C 8,9 C 79 % 1009,9 hPa 0,0 l/m 0 min 0 min 19 W/m 22,5 km/h (4 Bft) 100,00 %
01.10.2022 18:44 15,5 C 14,4 C 8,9 C 79 % 1009,9 hPa 0,0 l/m 0 min 0 min 20 W/m 12,9 km/h (3 Bft) 100,00 %
01.10.2022 18:42 15,6 C 14,4 C 8,9 C 79 % 1009,8 hPa 0,0 l/m 0 min 0 min 21 W/m 9,7 km/h (2 Bft) 100,00 %
01.10.2022 18:40 15,6 C 14,4 C 8,9 C 80 % 1009,8 hPa 0,0 l/m 0 min 0 min 23 W/m 6,4 km/h (2 Bft) 95,24 %
01.10.2022 18:38 15,6 C 14,4 C 8,9 C 80 % 1009,8 hPa 0,0 l/m 0 min 0 min 23 W/m 6,4 km/h (2 Bft) 95,74 %
01.10.2022 18:36 15,6 C 14,4 C 8,9 C 80 % 1009,8 hPa 0,0 l/m 0 min 0 min 24 W/m 6,4 km/h (2 Bft) 97,87 %
01.10.2022 18:34 15,6 C 14,4 C 8,9 C 80 % 1009,8 hPa 0,0 l/m 0 min 0 min 25 W/m 9,7 km/h (2 Bft) 97,87 %
01.10.2022 18:32 15,7 C 14,4 C 8,9 C 80 % 1009,8 hPa 0,0 l/m 0 min 0 min 29 W/m 9,7 km/h (2 Bft) 97,83 %
01.10.2022 18:30 15,7 C 15,0 C 8,9 C 80 % 1009,8 hPa 0,0 l/m 0 min 0 min 33 W/m 19,3 km/h (3 Bft) 93,62 %
01.10.2022 18:28 15,7 C 15,0 C 8,9 C 80 % 1009,8 hPa 0,0 l/m 0 min 0 min 36 W/m 19,3 km/h (3 Bft) 97,87 %
01.10.2022 18:26 15,7 C 15,0 C 8,9 C 80 % 1009,7 hPa 0,0 l/m 0 min 0 min 39 W/m 12,9 km/h (3 Bft) 97,87 %
01.10.2022 18:24 15,8 C 15,0 C 8,9 C 80 % 1009,6 hPa 0,0 l/m 0 min 0 min 44 W/m 16,1 km/h (3 Bft) 97,96 %
01.10.2022 18:22 15,8 C 15,0 C 8,9 C 81 % 1009,6 hPa 0,0 l/m 0 min 0 min 41 W/m 12,9 km/h (3 Bft) 93,62 %
01.10.2022 18:20 15,8 C 15,0 C 8,9 C 81 % 1009,5 hPa 0,0 l/m 0 min 0 min 34 W/m 16,1 km/h (3 Bft) 97,83 %
01.10.2022 18:18 15,9 C 15,0 C 9,4 C 81 % 1009,5 hPa 0,0 l/m 0 min 0 min 34 W/m 12,9 km/h (3 Bft) 97,87 %
01.10.2022 18:16 15,9 C 15,0 C 9,4 C 81 % 1009,5 hPa 0,0 l/m 0 min 0 min 37 W/m 12,9 km/h (3 Bft) 95,74 %
01.10.2022 18:14 16,0 C 15,0 C 9,4 C 81 % 1009,5 hPa 0,0 l/m 0 min 0 min 34 W/m 9,7 km/h (2 Bft) 96,00 %
01.10.2022 18:12 16,0 C 15,0 C 9,4 C 81 % 1009,4 hPa 0,0 l/m 0 min 0 min 38 W/m 12,9 km/h (3 Bft) 96,23 %
01.10.2022 18:10 16,1 C 15,0 C 9,4 C 81 % 1009,3 hPa 0,0 l/m 0 min 0 min 39 W/m 9,7 km/h (2 Bft) 94,44 %
01.10.2022 18:08 16,1 C 15,0 C 9,4 C 80 % 1009,3 hPa 0,0 l/m 0 min 0 min 40 W/m 16,1 km/h (3 Bft) 93,68 %
01.10.2022 18:04 16,1 C 15,6 C 9,4 C 81 % 1009,2 hPa 0,0 l/m 0 min 0 min 42 W/m 29,0 km/h (5 Bft) 95,74 %
01.10.2022 18:02 16,1 C 15,6 C 9,4 C 81 % 1009,1 hPa 0,0 l/m 0 min 0 min 42 W/m 19,3 km/h (3 Bft) 94,00 %
01.10.2022 18:00 16,1 C 15,6 C 9,4 C 82 % 1009,2 hPa 0,0 l/m 0 min 0 min 44 W/m 16,1 km/h (3 Bft) 95,74 %
01.10.2022 17:58 16,1 C 15,6 C 9,4 C 82 % 1009,2 hPa 0,0 l/m 0 min 0 min 45 W/m 12,9 km/h (3 Bft) 95,65 %
01.10.2022 17:56 16,1 C 15,6 C 9,4 C 82 % 1009,2 hPa 0,0 l/m 0 min 0 min 59 W/m 16,1 km/h (3 Bft) 95,24 %
01.10.2022 17:54 16,1 C 15,6 C 9,4 C 83 % 1009,2 hPa 0,0 l/m 0 min 0 min 74 W/m 12,9 km/h (3 Bft) 97,87 %
01.10.2022 17:52 16,1 C 15,6 C 9,4 C 83 % 1009,1 hPa 0,0 l/m 2 min 0 min 110 W/m 12,9 km/h (3 Bft) 98,00 %
01.10.2022 17:50 16,2 C 15,6 C 9,4 C 83 % 1009,1 hPa 0,0 l/m 2 min 0 min 108 W/m 12,9 km/h (3 Bft) 96,43 %
01.10.2022 17:48 16,2 C 15,6 C 9,4 C 83 % 1009,1 hPa 0,0 l/m 2 min 0 min 162 W/m 12,9 km/h (3 Bft) 94,29 %
01.10.2022 17:46 16,2 C 15,6 C 9,4 C 83 % 1009,1 hPa 0,0 l/m 2 min 0 min 166 W/m 6,4 km/h (2 Bft) 97,83 %
01.10.2022 17:44 16,2 C 15,6 C 9,4 C 83 % 1009,0 hPa 0,0 l/m 2 min 0 min 172 W/m 9,7 km/h (2 Bft) 97,87 %
01.10.2022 17:42 16,2 C 15,6 C 9,4 C 83 % 1009,0 hPa 0,0 l/m 2 min 0 min 175 W/m 16,1 km/h (3 Bft) 97,87 %
01.10.2022 17:40 16,1 C 15,6 C 9,4 C 83 % 1009,0 hPa 0,0 l/m 2 min 0 min 183 W/m 12,9 km/h (3 Bft) 96,00 %
01.10.2022 17:38 16,1 C 15,6 C 9,4 C 83 % 1008,9 hPa 0,0 l/m 2 min 0 min 190 W/m 16,1 km/h (3 Bft) 94,29 %
01.10.2022 17:36 16,1 C 15,6 C 9,4 C 83 % 1008,9 hPa 0,0 l/m 2 min 0 min 197 W/m 12,9 km/h (3 Bft) 98,36 %
01.10.2022 17:34 16,1 C 15,6 C 9,4 C 83 % 1008,8 hPa 0,0 l/m 2 min 0 min 204 W/m 12,9 km/h (3 Bft) 100,00 %
01.10.2022 17:32 16,1 C 15,6 C 9,4 C 83 % 1008,8 hPa 0,0 l/m 2 min 0 min 211 W/m 19,3 km/h (3 Bft) 100,00 %
01.10.2022 17:30 16,0 C 15,6 C 9,4 C 84 % 1008,8 hPa 0,0 l/m 2 min 0 min 212 W/m 16,1 km/h (3 Bft) 100,00 %
01.10.2022 17:28 15,9 C 15,6 C 9,4 C 84 % 1008,8 hPa 0,0 l/m 2 min 0 min 222 W/m 25,7 km/h (4 Bft) 100,00 %
01.10.2022 17:26 15,9 C 15,6 C 10,0 C 85 % 1008,7 hPa 0,0 l/m 2 min 0 min 244 W/m 16,1 km/h (3 Bft) 100,00 %
01.10.2022 17:24 15,8 C 15,6 C 10,0 C 85 % 1008,8 hPa 0,0 l/m 2 min 0 min 289 W/m 22,5 km/h (4 Bft) 100,00 %
01.10.2022 17:22 15,7 C 15,6 C 10,0 C 86 % 1008,7 hPa 0,0 l/m 2 min 0 min 329 W/m 29,0 km/h (5 Bft) 100,00 %
01.10.2022 17:20 15,6 C 15,6 C 10,0 C 86 % 1008,8 hPa 0,0 l/m 2 min 0 min 274 W/m 22,5 km/h (4 Bft) 100,00 %
01.10.2022 17:18 15,6 C 15,0 C 9,4 C 86 % 1008,7 hPa 0,0 l/m 0 min 0 min 124 W/m 12,9 km/h (3 Bft) 97,87 %
01.10.2022 17:16 15,6 C 15,0 C 9,4 C 86 % 1008,7 hPa 0,0 l/m 0 min 0 min 69 W/m 12,9 km/h (3 Bft) 100,00 %
01.10.2022 17:14 15,6 C 15,0 C 9,4 C 87 % 1008,7 hPa 0,0 l/m 0 min 0 min 73 W/m 12,9 km/h (3 Bft) 100,00 %
01.10.2022 17:12 15,6 C 15,0 C 9,4 C 87 % 1008,7 hPa 0,0 l/m 0 min 0 min 76 W/m 12,9 km/h (3 Bft) 97,87 %
01.10.2022 17:10 15,6 C 15,0 C 9,4 C 87 % 1008,5 hPa 0,0 l/m 0 min 0 min 66 W/m 29,0 km/h (5 Bft) 97,83 %
01.10.2022 17:08 15,6 C 15,0 C 10,0 C 87 % 1008,6 hPa 0,0 l/m 0 min 0 min 60 W/m 16,1 km/h (3 Bft) 100,00 %
01.10.2022 17:06 15,6 C 15,0 C 10,0 C 88 % 1008,6 hPa 0,0 l/m 0 min 0 min 71 W/m 12,9 km/h (3 Bft) 98,00 %
01.10.2022 17:04 15,7 C 15,0 C 10,0 C 88 % 1008,5 hPa 0,0 l/m 0 min 0 min 72 W/m 16,1 km/h (3 Bft) 97,87 %
01.10.2022 17:02 15,7 C 15,0 C 10,0 C 88 % 1008,5 hPa 0,0 l/m 0 min 0 min 51 W/m 19,3 km/h (3 Bft) 97,87 %
01.10.2022 17:00 15,7 C 15,6 C 10,0 C 88 % 1008,4 hPa 0,0 l/m 0 min 0 min 48 W/m 16,1 km/h (3 Bft) 97,67 %
01.10.2022 16:58 15,7 C 16,1 C 10,0 C 89 % 1008,4 hPa 0,0 l/m 2 min 0 min 260 W/m 19,3 km/h (3 Bft) 97,83 %
01.10.2022 16:56 15,7 C 16,7 C 10,0 C 89 % 1008,3 hPa 0,0 l/m 0 min 0 min 151 W/m 12,9 km/h (3 Bft) 97,87 %
01.10.2022 16:54 15,6 C 16,1 C 10,0 C 90 % 1008,3 hPa 0,0 l/m 0 min 0 min 75 W/m 12,9 km/h (3 Bft) 97,87 %
01.10.2022 16:52 15,6 C 16,7 C 10,0 C 90 % 1008,3 hPa 0,0 l/m 2 min 0 min 342 W/m 12,9 km/h (3 Bft) 97,87 %
01.10.2022 16:50 15,5 C 16,7 C 10,0 C 91 % 1008,2 hPa 0,0 l/m 2 min 0 min 333 W/m 12,9 km/h (3 Bft) 97,87 %
01.10.2022 16:48 15,4 C 16,7 C 10,0 C 91 % 1008,2 hPa 0,0 l/m 2 min 0 min 326 W/m 16,1 km/h (3 Bft) 97,87 %
01.10.2022 16:46 15,3 C 16,1 C 10,0 C 92 % 1008,2 hPa 0,0 l/m 2 min 0 min 340 W/m 19,3 km/h (3 Bft) 97,83 %
01.10.2022 16:44 15,3 C 16,1 C 10,0 C 92 % 1008,2 hPa 0,0 l/m 2 min 0 min 347 W/m 22,5 km/h (4 Bft) 97,87 %
01.10.2022 16:42 15,3 C 16,1 C 10,0 C 93 % 1008,2 hPa 0,0 l/m 2 min 0 min 346 W/m 25,7 km/h (4 Bft) 97,92 %
01.10.2022 16:40 15,2 C 15,6 C 10,0 C 93 % 1008,2 hPa 0,0 l/m 2 min 0 min 351 W/m 12,9 km/h (3 Bft) 97,87 %
01.10.2022 16:38 15,2 C 15,0 C 10,0 C 93 % 1008,1 hPa 0,0 l/m 2 min 0 min 360 W/m 9,7 km/h (2 Bft) 97,37 %
01.10.2022 16:36 15,1 C 15,0 C 10,0 C 93 % 1008,1 hPa 0,0 l/m 2 min 0 min 240 W/m 9,7 km/h (2 Bft) 98,18 %
01.10.2022 16:34 15,1 C 14,4 C 10,0 C 93 % 1008,0 hPa 0,0 l/m 0 min 0 min 64 W/m 6,4 km/h (2 Bft) 100,00 %
01.10.2022 16:32 15,1 C 15,0 C 10,0 C 93 % 1008,0 hPa 0,0 l/m 0 min 0 min 97 W/m 9,7 km/h (2 Bft) 100,00 %
01.10.2022 16:30 15,0 C 15,0 C 10,0 C 93 % 1008,0 hPa 0,0 l/m 0 min 0 min 161 W/m 12,9 km/h (3 Bft) 100,00 %
01.10.2022 16:28 15,0 C 15,0 C 10,0 C 93 % 1008,0 hPa 0,0 l/m 0 min 0 min 172 W/m 3,2 km/h (1 Bft) 97,87 %
01.10.2022 16:26 14,9 C 15,0 C 10,0 C 93 % 1008,0 hPa 0,0 l/m 0 min 0 min 170 W/m 12,9 km/h (3 Bft) 97,87 %
01.10.2022 16:24 14,9 C 14,4 C 10,0 C 93 % 1008,0 hPa 0,0 l/m 0 min 0 min 182 W/m 16,1 km/h (3 Bft) 100,00 %
01.10.2022 16:22 14,9 C 14,4 C 10,0 C 92 % 1008,0 hPa 0,0 l/m 0 min 2 min 124 W/m 9,7 km/h (2 Bft) 100,00 %
01.10.2022 16:20 14,8 C 14,4 C 10,0 C 92 % 1008,0 hPa 0,4 l/m 0 min 2 min 81 W/m 6,4 km/h (2 Bft) 100,00 %
01.10.2022 16:18 14,8 C 13,9 C 10,0 C 92 % 1008,0 hPa 0,0 l/m 0 min 2 min 56 W/m 9,7 km/h (2 Bft) 100,00 %
01.10.2022 16:16 14,8 C 13,9 C 10,0 C 92 % 1007,8 hPa 0,0 l/m 0 min 2 min 45 W/m 12,9 km/h (3 Bft) 98,00 %
01.10.2022 16:14 14,8 C 13,9 C 10,0 C 92 % 1007,8 hPa 0,0 l/m 0 min 0 min 48 W/m 9,7 km/h (2 Bft) 100,00 %
01.10.2022 16:12 14,8 C 13,9 C 10,0 C 93 % 1007,8 hPa 0,0 l/m 0 min 2 min 57 W/m 12,9 km/h (3 Bft) 100,00 %
01.10.2022 16:10 14,8 C 13,9 C 10,0 C 93 % 1007,8 hPa 0,0 l/m 0 min 2 min 60 W/m 12,9 km/h (3 Bft) 100,00 %
01.10.2022 16:08 14,8 C 13,9 C 10,0 C 92 % 1007,7 hPa 0,0 l/m 0 min 0 min 72 W/m 9,7 km/h (2 Bft) 100,00 %
01.10.2022 16:06 14,8 C 13,9 C 10,0 C 92 % 1007,8 hPa 0,0 l/m 0 min 0 min 85 W/m 12,9 km/h (3 Bft) 100,00 %
01.10.2022 16:04 14,8 C 13,9 C 10,0 C 92 % 1007,7 hPa 0,0 l/m 0 min 0 min 97 W/m 12,9 km/h (3 Bft) 100,00 %
01.10.2022 16:02 14,8 C 13,9 C 10,0 C 92 % 1007,7 hPa 0,0 l/m 0 min 0 min 109 W/m 12,9 km/h (3 Bft) 97,87 %
01.10.2022 16:00 14,7 C 13,9 C 10,0 C 92 % 1007,7 hPa 0,0 l/m 0 min 2 min 136 W/m 6,4 km/h (2 Bft) 100,00 %
01.10.2022 15:58 14,7 C 13,9 C 10,0 C 92 % 1007,7 hPa 0,0 l/m 0 min 2 min 132 W/m 9,7 km/h (2 Bft) 100,00 %
01.10.2022 15:56 14,7 C 13,3 C 10,0 C 91 % 1007,7 hPa 0,0 l/m 0 min 2 min 99 W/m 6,4 km/h (2 Bft) 97,87 %
01.10.2022 15:54 14,7 C 13,3 C 9,4 C 91 % 1007,6 hPa 0,0 l/m 0 min 2 min 77 W/m 6,4 km/h (2 Bft) 98,00 %
01.10.2022 15:52 14,7 C 13,3 C 9,4 C 90 % 1007,5 hPa 0,0 l/m 0 min 0 min 63 W/m 6,4 km/h (2 Bft) 95,74 %
01.10.2022 15:50 14,7 C 12,8 C 9,4 C 90 % 1007,5 hPa 0,0 l/m 0 min 0 min 54 W/m 12,9 km/h (3 Bft) 97,87 %
01.10.2022 15:48 14,8 C 12,8 C 9,4 C 90 % 1007,5 hPa 0,0 l/m 0 min 2 min 51 W/m 12,9 km/h (3 Bft) 93,48 %
01.10.2022 15:46 14,9 C 12,8 C 9,4 C 89 % 1007,5 hPa 0,0 l/m 0 min 0 min 58 W/m 16,1 km/h (3 Bft) 97,87 %
01.10.2022 15:44 15,1 C 12,8 C 9,4 C 89 % 1007,5 hPa 0,0 l/m 0 min 2 min 72 W/m 12,9 km/h (3 Bft) 97,87 %
01.10.2022 15:42 15,3 C 12,8 C 9,4 C 89 % 1007,4 hPa 0,2 l/m 0 min 2 min 81 W/m 16,1 km/h (3 Bft) 97,87 %
01.10.2022 15:40 15,6 C 13,9 C 10,0 C 89 % 1007,5 hPa 1,0 l/m 0 min 2 min 54 W/m 22,5 km/h (4 Bft) 95,74 %
01.10.2022 15:38 15,8 C 14,4 C 10,0 C 89 % 1007,5 hPa 0,6 l/m 0 min 2 min 42 W/m 16,1 km/h (3 Bft) 94,29 %
01.10.2022 15:36 15,9 C 15,0 C 10,0 C 90 % 1007,3 hPa 0,2 l/m 0 min 2 min 51 W/m 19,3 km/h (3 Bft) 94,83 %
01.10.2022 15:34 15,9 C 15,6 C 10,6 C 90 % 1007,2 hPa 0,0 l/m 0 min 2 min 92 W/m 25,7 km/h (4 Bft) 95,74 %
01.10.2022 15:32 15,9 C 15,6 C 10,6 C 90 % 1007,1 hPa 0,0 l/m 0 min 0 min 112 W/m 19,3 km/h (3 Bft) 95,74 %
01.10.2022 15:30 15,8 C 16,1 C 10,6 C 90 % 1007,0 hPa 0,0 l/m 0 min 2 min 162 W/m 19,3 km/h (3 Bft) 93,62 %
01.10.2022 15:28 15,7 C 16,1 C 10,6 C 91 % 1007,0 hPa 0,0 l/m 0 min 0 min 188 W/m 16,1 km/h (3 Bft) 95,74 %
01.10.2022 15:26 15,6 C 16,1 C 10,6 C 91 % 1007,0 hPa 0,0 l/m 0 min 0 min 190 W/m 16,1 km/h (3 Bft) 95,65 %
01.10.2022 15:24 15,5 C 16,1 C 10,6 C 91 % 1007,0 hPa 0,0 l/m 2 min 0 min 362 W/m 12,9 km/h (3 Bft) 95,74 %
01.10.2022 15:22 15,4 C 15,6 C 10,0 C 90 % 1007,0 hPa 0,0 l/m 2 min 0 min 341 W/m 12,9 km/h (3 Bft) 95,74 %
01.10.2022 15:20 15,3 C 15,6 C 10,0 C 91 % 1007,0 hPa 0,0 l/m 0 min 0 min 214 W/m 19,3 km/h (3 Bft) 95,35 %
01.10.2022 15:18 15,3 C 15,6 C 10,0 C 91 % 1007,0 hPa 0,0 l/m 0 min 0 min 203 W/m 12,9 km/h (3 Bft) 95,74 %
01.10.2022 15:16 15,3 C 15,6 C 10,0 C 91 % 1007,0 hPa 0,0 l/m 2 min 0 min 302 W/m 16,1 km/h (3 Bft) 95,74 %
01.10.2022 15:14 15,2 C 15,0 C 10,0 C 91 % 1006,9 hPa 0,0 l/m 2 min 0 min 454 W/m 9,7 km/h (2 Bft) 95,56 %
01.10.2022 15:12 15,1 C 15,0 C 10,0 C 91 % 1006,9 hPa 0,0 l/m 0 min 0 min 172 W/m 16,1 km/h (3 Bft) 92,16 %
01.10.2022 15:10 15,1 C 14,4 C 10,0 C 92 % 1006,9 hPa 0,0 l/m 0 min 0 min 105 W/m 19,3 km/h (3 Bft) 93,62 %
01.10.2022 15:08 15,1 C 14,4 C 10,0 C 92 % 1006,8 hPa 0,0 l/m 0 min 0 min 84 W/m 12,9 km/h (3 Bft) 95,74 %
01.10.2022 15:06 15,1 C 14,4 C 10,0 C 92 % 1006,8 hPa 0,0 l/m 0 min 0 min 62 W/m 9,7 km/h (2 Bft) 95,83 %
01.10.2022 15:04 15,1 C 14,4 C 10,0 C 92 % 1006,8 hPa 0,0 l/m 0 min 0 min 58 W/m 16,1 km/h (3 Bft) 95,74 %
01.10.2022 15:02 15,2 C 14,4 C 10,0 C 92 % 1006,8 hPa 0,0 l/m 0 min 0 min 67 W/m 19,3 km/h (3 Bft) 91,30 %
01.10.2022 15:00 15,2 C 14,4 C 10,0 C 92 % 1006,8 hPa 0,0 l/m 0 min 0 min 59 W/m 16,1 km/h (3 Bft) 95,74 %
01.10.2022 14:58 15,2 C 14,4 C 10,0 C 92 % 1006,8 hPa 0,0 l/m 0 min 0 min 99 W/m 12,9 km/h (3 Bft) 95,74 %
01.10.2022 14:56 15,2 C 14,4 C 10,0 C 92 % 1006,8 hPa 0,0 l/m 0 min 2 min 116 W/m 12,9 km/h (3 Bft) 94,74 %
01.10.2022 14:54 15,2 C 14,4 C 10,6 C 92 % 1006,9 hPa 0,0 l/m 0 min 2 min 100 W/m 19,3 km/h (3 Bft) 95,74 %
01.10.2022 14:52 15,2 C 14,4 C 10,6 C 91 % 1006,8 hPa 0,0 l/m 0 min 2 min 103 W/m 12,9 km/h (3 Bft) 91,49 %
01.10.2022 14:50 15,2 C 14,4 C 10,0 C 91 % 1006,7 hPa 0,0 l/m 0 min 2 min 118 W/m 12,9 km/h (3 Bft) 95,74 %
01.10.2022 14:48 15,2 C 14,4 C 10,0 C 91 % 1006,7 hPa 0,0 l/m 0 min 0 min 127 W/m 12,9 km/h (3 Bft) 95,65 %
01.10.2022 14:46 15,1 C 14,4 C 10,0 C 90 % 1006,6 hPa 0,0 l/m 0 min 0 min 168 W/m 9,7 km/h (2 Bft) 97,87 %
01.10.2022 14:44 15,1 C 14,4 C 10,0 C 90 % 1006,6 hPa 0,0 l/m 0 min 0 min 225 W/m 6,4 km/h (2 Bft) 97,87 %
01.10.2022 14:42 15,1 C 14,4 C 10,0 C 90 % 1006,5 hPa 0,0 l/m 0 min 2 min 189 W/m 9,7 km/h (2 Bft) 97,87 %
01.10.2022 14:40 15,1 C 13,9 C 10,0 C 89 % 1006,5 hPa 0,0 l/m 0 min 2 min 119 W/m 9,7 km/h (2 Bft) 97,87 %
01.10.2022 14:38 15,2 C 13,9 C 9,4 C 88 % 1006,5 hPa 0,0 l/m 0 min 2 min 97 W/m 6,4 km/h (2 Bft) 100,00 %
01.10.2022 14:36 15,2 C 13,9 C 9,4 C 88 % 1006,5 hPa 0,0 l/m 0 min 2 min 94 W/m 6,4 km/h (2 Bft) 100,00 %
01.10.2022 14:34 15,3 C 13,9 C 9,4 C 87 % 1006,5 hPa 0,0 l/m 0 min 2 min 106 W/m 6,4 km/h (2 Bft) 97,87 %
01.10.2022 14:32 15,4 C 13,9 C 9,4 C 86 % 1006,5 hPa 0,0 l/m 0 min 0 min 129 W/m 19,3 km/h (3 Bft) 100,00 %
01.10.2022 14:30 15,5 C 13,9 C 9,4 C 85 % 1006,5 hPa 0,0 l/m 0 min 0 min 129 W/m 12,9 km/h (3 Bft) 100,00 %
01.10.2022 14:28 15,7 C 13,3 C 9,4 C 84 % 1006,5 hPa 0,0 l/m 0 min 2 min 124 W/m 16,1 km/h (3 Bft) 97,87 %
01.10.2022 14:26 15,9 C 13,3 C 9,4 C 83 % 1006,4 hPa 0,2 l/m 0 min 2 min 93 W/m 22,5 km/h (4 Bft) 100,00 %
01.10.2022 14:24 16,2 C 13,9 C 9,4 C 83 % 1006,5 hPa 0,4 l/m 0 min 2 min 62 W/m 35,4 km/h (5 Bft) 100,00 %
01.10.2022 14:22 16,7 C 14,4 C 9,4 C 82 % 1006,2 hPa 0,2 l/m 0 min 2 min 68 W/m 38,6 km/h (5 Bft) 100,00 %
01.10.2022 14:20 17,2 C 15,0 C 10,6 C 82 % 1006,2 hPa 0,2 l/m 0 min 2 min 102 W/m 25,7 km/h (4 Bft) 100,00 %
01.10.2022 14:18 17,5 C 15,6 C 10,6 C 82 % 1006,3 hPa 0,6 l/m 0 min 2 min 222 W/m 19,3 km/h (3 Bft) 100,00 %
01.10.2022 14:16 17,8 C 17,2 C 11,7 C 80 % 1006,2 hPa 0,8 l/m 2 min 2 min 343 W/m 25,7 km/h (4 Bft) 100,00 %
01.10.2022 14:14 17,9 C 18,9 C 13,3 C 79 % 1006,1 hPa 0,0 l/m 2 min 2 min 639 W/m 19,3 km/h (3 Bft) 97,87 %
01.10.2022 14:12 17,9 C 19,4 C 13,3 C 79 % 1006,1 hPa 0,0 l/m 2 min 2 min 718 W/m 41,8 km/h (6 Bft) 97,83 %
01.10.2022 14:10 17,9 C 18,9 C 13,3 C 79 % 1006,0 hPa 0,0 l/m 2 min 0 min 337 W/m 19,3 km/h (3 Bft) 100,00 %
01.10.2022 14:08 18,0 C 19,4 C 13,9 C 79 % 1005,9 hPa 0,0 l/m 2 min 2 min 611 W/m 22,5 km/h (4 Bft) 100,00 %
01.10.2022 14:06 17,9 C 21,1 C 13,9 C 80 % 1006,0 hPa 0,0 l/m 2 min 0 min 580 W/m 19,3 km/h (3 Bft) 100,00 %
01.10.2022 14:04 17,8 C 20,6 C 13,3 C 80 % 1006,0 hPa 0,0 l/m 2 min 0 min 581 W/m 35,4 km/h (5 Bft) 100,00 %
01.10.2022 14:02 17,7 C 21,1 C 13,3 C 81 % 1006,0 hPa 0,0 l/m 2 min 0 min 582 W/m 25,7 km/h (4 Bft) 100,00 %
01.10.2022 14:00 17,6 C 21,1 C 13,3 C 81 % 1005,9 hPa 0,0 l/m 2 min 0 min 787 W/m 16,1 km/h (3 Bft) 100,00 %
01.10.2022 13:58 17,4 C 20,6 C 13,3 C 82 % 1006,0 hPa 0,0 l/m 2 min 0 min 771 W/m 16,1 km/h (3 Bft) 97,87 %
01.10.2022 13:56 17,3 C 19,4 C 12,8 C 82 % 1005,9 hPa 0,0 l/m 2 min 0 min 682 W/m 25,7 km/h (4 Bft) 97,87 %
01.10.2022 13:54 17,3 C 17,8 C 12,8 C 83 % 1005,9 hPa 0,0 l/m 2 min 0 min 626 W/m 16,1 km/h (3 Bft) 100,00 %
01.10.2022 13:52 17,2 C 17,8 C 12,8 C 83 % 1005,9 hPa 0,0 l/m 2 min 0 min 515 W/m 19,3 km/h (3 Bft) 100,00 %
01.10.2022 13:50 17,1 C 17,2 C 12,8 C 83 % 1005,9 hPa 0,0 l/m 2 min 0 min 336 W/m 19,3 km/h (3 Bft) 100,00 %
01.10.2022 13:48 17,1 C 17,2 C 12,8 C 84 % 1005,9 hPa 0,0 l/m 0 min 0 min 223 W/m 16,1 km/h (3 Bft) 100,00 %
01.10.2022 13:46 17,0 C 17,2 C 12,8 C 84 % 1005,9 hPa 0,0 l/m 0 min 0 min 207 W/m 16,1 km/h (3 Bft) 97,87 %
01.10.2022 13:44 16,9 C 17,2 C 12,8 C 84 % 1005,8 hPa 0,0 l/m 0 min 0 min 274 W/m 16,1 km/h (3 Bft) 100,00 %
01.10.2022 13:42 16,8 C 16,7 C 12,8 C 85 % 1005,8 hPa 0,0 l/m 0 min 0 min 200 W/m 35,4 km/h (5 Bft) 100,00 %
01.10.2022 13:40 16,8 C 16,7 C 12,2 C 86 % 1005,8 hPa 0,0 l/m 0 min 0 min 121 W/m 29,0 km/h (5 Bft) 100,00 %
01.10.2022 13:38 16,7 C 16,7 C 12,2 C 86 % 1005,8 hPa 0,0 l/m 0 min 0 min 123 W/m 22,5 km/h (4 Bft) 100,00 %
01.10.2022 13:36 16,7 C 16,7 C 12,2 C 87 % 1005,9 hPa 0,0 l/m 0 min 0 min 146 W/m 16,1 km/h (3 Bft) 100,00 %
01.10.2022 13:34 16,6 C 16,7 C 12,2 C 87 % 1005,8 hPa 0,0 l/m 0 min 0 min 206 W/m 12,9 km/h (3 Bft) 100,00 %
01.10.2022 13:32 16,6 C 16,7 C 12,2 C 88 % 1005,8 hPa 0,0 l/m 0 min 0 min 141 W/m 22,5 km/h (4 Bft) 100,00 %
01.10.2022 13:30 16,4 C 16,1 C 11,7 C 88 % 1005,7 hPa 0,0 l/m 0 min 0 min 113 W/m 19,3 km/h (3 Bft) 100,00 %
01.10.2022 13:28 16,4 C 16,1 C 11,7 C 88 % 1005,7 hPa 0,0 l/m 0 min 0 min 95 W/m 22,5 km/h (4 Bft) 100,00 %
01.10.2022 13:26 16,3 C 16,1 C 11,7 C 89 % 1005,7 hPa 0,0 l/m 0 min 0 min 89 W/m 25,7 km/h (4 Bft) 100,00 %
01.10.2022 13:24 16,2 C 16,1 C 11,7 C 89 % 1005,7 hPa 0,0 l/m 0 min 0 min 104 W/m 12,9 km/h (3 Bft) 100,00 %
01.10.2022 13:22 16,1 C 16,1 C 11,7 C 89 % 1005,7 hPa 0,0 l/m 0 min 0 min 89 W/m 22,5 km/h (4 Bft) 100,00 %
01.10.2022 13:20 16,1 C 16,1 C 11,1 C 89 % 1005,7 hPa 0,0 l/m 0 min 0 min 126 W/m 19,3 km/h (3 Bft) 100,00 %
01.10.2022 13:18 16,0 C 16,1 C 11,1 C 88 % 1005,7 hPa 0,0 l/m 0 min 2 min 149 W/m 32,2 km/h (5 Bft) 100,00 %
01.10.2022 13:16 16,0 C 15,6 C 11,1 C 88 % 1005,7 hPa 0,0 l/m 0 min 2 min 195 W/m 16,1 km/h (3 Bft) 100,00 %
01.10.2022 13:14 16,0 C 15,6 C 11,1 C 88 % 1005,8 hPa 0,0 l/m 0 min 2 min 210 W/m 12,9 km/h (3 Bft) 100,00 %
01.10.2022 13:12 16,0 C 15,6 C 11,1 C 88 % 1005,8 hPa 0,0 l/m 0 min 2 min 182 W/m 16,1 km/h (3 Bft) 100,00 %
01.10.2022 13:10 16,0 C 15,6 C 11,1 C 88 % 1005,7 hPa 0,0 l/m 0 min 2 min 81 W/m 19,3 km/h (3 Bft) 100,00 %
01.10.2022 13:08 16,1 C 15,6 C 11,1 C 87 % 1005,6 hPa 0,0 l/m 0 min 0 min 64 W/m 16,1 km/h (3 Bft) 97,87 %
01.10.2022 13:06 16,1 C 15,6 C 11,7 C 87 % 1005,6 hPa 0,0 l/m 0 min 0 min 111 W/m 19,3 km/h (3 Bft) 95,74 %
01.10.2022 13:04 16,2 C 15,6 C 11,7 C 88 % 1005,7 hPa 0,0 l/m 0 min 0 min 99 W/m 16,1 km/h (3 Bft) 97,87 %
01.10.2022 13:02 16,3 C 16,1 C 11,7 C 88 % 1005,7 hPa 0,0 l/m 0 min 0 min 81 W/m 16,1 km/h (3 Bft) 95,65 %
01.10.2022 13:00 16,3 C 16,1 C 11,7 C 88 % 1005,7 hPa 0,0 l/m 0 min 0 min 86 W/m 12,9 km/h (3 Bft) 95,74 %
01.10.2022 12:58 16,3 C 16,7 C 11,7 C 89 % 1005,7 hPa 0,0 l/m 0 min 0 min 143 W/m 22,5 km/h (4 Bft) 93,62 %
01.10.2022 12:56 16,2 C 16,7 C 11,7 C 89 % 1005,6 hPa 0,0 l/m 0 min 0 min 135 W/m 19,3 km/h (3 Bft) 91,49 %
01.10.2022 12:54 16,2 C 16,7 C 11,7 C 90 % 1005,6 hPa 0,0 l/m 0 min 0 min 153 W/m 19,3 km/h (3 Bft) 91,49 %
01.10.2022 12:52 16,1 C 16,7 C 11,1 C 90 % 1005,6 hPa 0,0 l/m 0 min 0 min 207 W/m 25,7 km/h (4 Bft) 93,62 %
01.10.2022 12:50 15,9 C 16,7 C 11,1 C 90 % 1005,6 hPa 0,0 l/m 0 min 0 min 246 W/m 19,3 km/h (3 Bft) 91,49 %
01.10.2022 12:48 15,9 C 16,1 C 11,1 C 91 % 1005,6 hPa 0,0 l/m 2 min 0 min 284 W/m 12,9 km/h (3 Bft) 89,13 %
01.10.2022 12:46 15,8 C 16,1 C 11,1 C 91 % 1005,6 hPa 0,0 l/m 0 min 0 min 249 W/m 12,9 km/h (3 Bft) 91,49 %
01.10.2022 12:44 15,8 C 16,1 C 10,6 C 91 % 1005,5 hPa 0,0 l/m 0 min 0 min 208 W/m 12,9 km/h (3 Bft) 93,62 %
01.10.2022 12:42 15,8 C 16,1 C 10,6 C 92 % 1005,5 hPa 0,0 l/m 0 min 0 min 212 W/m 12,9 km/h (3 Bft) 93,62 %
01.10.2022 12:40 15,7 C 16,1 C 10,6 C 92 % 1005,5 hPa 0,0 l/m 0 min 0 min 144 W/m 16,1 km/h (3 Bft) 93,62 %
01.10.2022 12:38 15,7 C 16,1 C 10,6 C 92 % 1005,5 hPa 0,0 l/m 0 min 0 min 194 W/m 19,3 km/h (3 Bft) 93,48 %
01.10.2022 12:36 15,7 C 16,1 C 10,6 C 92 % 1005,5 hPa 0,0 l/m 0 min 0 min 214 W/m 19,3 km/h (3 Bft) 93,62 %
01.10.2022 12:34 15,6 C 16,1 C 10,6 C 93 % 1005,5 hPa 0,0 l/m 0 min 0 min 208 W/m 19,3 km/h (3 Bft) 89,36 %
01.10.2022 12:32 15,6 C 16,1 C 10,6 C 93 % 1005,4 hPa 0,0 l/m 0 min 0 min 191 W/m 12,9 km/h (3 Bft) 95,74 %
01.10.2022 12:30 15,4 C 16,1 C 10,6 C 93 % 1005,4 hPa 0,0 l/m 0 min 0 min 127 W/m 19,3 km/h (3 Bft) 95,74 %
01.10.2022 12:28 15,4 C 16,1 C 10,6 C 94 % 1005,2 hPa 0,0 l/m 0 min 0 min 148 W/m 19,3 km/h (3 Bft) 95,74 %
01.10.2022 12:26 15,3 C 16,1 C 10,6 C 94 % 1005,2 hPa 0,0 l/m 0 min 0 min 158 W/m 6,4 km/h (2 Bft) 95,65 %
01.10.2022 12:24 15,2 C 16,1 C 10,6 C 94 % 1005,2 hPa 0,0 l/m 0 min 0 min 154 W/m 12,9 km/h (3 Bft) 93,62 %
01.10.2022 12:22 15,1 C 15,6 C 10,6 C 95 % 1005,2 hPa 0,0 l/m 0 min 2 min 105 W/m 19,3 km/h (3 Bft) 93,62 %
01.10.2022 12:20 15,0 C 15,6 C 10,6 C 95 % 1005,2 hPa 0,0 l/m 0 min 0 min 97 W/m 19,3 km/h (3 Bft) 95,74 %
01.10.2022 12:18 14,9 C 16,1 C 10,6 C 95 % 1005,2 hPa 0,0 l/m 0 min 0 min 128 W/m 12,9 km/h (3 Bft) 94,55 %
01.10.2022 12:16 14,8 C 16,1 C 10,6 C 95 % 1005,1 hPa 0,0 l/m 0 min 2 min 141 W/m 12,9 km/h (3 Bft) 95,65 %
01.10.2022 12:14 14,7 C 16,1 C 10,6 C 96 % 1005,1 hPa 0,0 l/m 0 min 2 min 166 W/m 16,1 km/h (3 Bft) 95,74 %
01.10.2022 12:12 14,6 C 16,7 C 10,6 C 96 % 1005,1 hPa 0,0 l/m 2 min 2 min 307 W/m 12,9 km/h (3 Bft) 95,83 %
01.10.2022 12:10 14,4 C 16,1 C 10,0 C 96 % 1005,1 hPa 0,0 l/m 2 min 2 min 274 W/m 12,9 km/h (3 Bft) 94,74 %
01.10.2022 12:08 14,3 C 15,0 C 10,0 C 96 % 1005,0 hPa 0,0 l/m 0 min 4 min 192 W/m 19,3 km/h (3 Bft) 98,04 %
01.10.2022 12:04 14,3 C 14,4 C 10,0 C 96 % 1005,0 hPa 0,0 l/m 0 min 2 min 210 W/m 6,4 km/h (2 Bft) 100,00 %
01.10.2022 12:02 14,3 C 14,4 C 10,0 C 96 % 1005,0 hPa 0,0 l/m 0 min 0 min 200 W/m 19,3 km/h (3 Bft) 100,00 %
01.10.2022 12:00 14,3 C 14,4 C 10,0 C 96 % 1005,0 hPa 0,0 l/m 0 min 0 min 200 W/m 16,1 km/h (3 Bft) 100,00 %
01.10.2022 11:58 14,3 C 14,4 C 10,0 C 96 % 1005,0 hPa 0,0 l/m 0 min 0 min 177 W/m 12,9 km/h (3 Bft) 98,21 %
01.10.2022 11:56 14,3 C 14,4 C 10,0 C 96 % 1005,0 hPa 0,0 l/m 0 min 0 min 155 W/m 12,9 km/h (3 Bft) 100,00 %
01.10.2022 11:54 14,2 C 13,9 C 10,0 C 96 % 1004,9 hPa 0,0 l/m 0 min 0 min 140 W/m 12,9 km/h (3 Bft) 100,00 %
01.10.2022 11:52 14,2 C 13,9 C 10,0 C 96 % 1004,9 hPa 0,0 l/m 0 min 0 min 129 W/m 12,9 km/h (3 Bft) 97,83 %
01.10.2022 11:50 14,1 C 13,9 C 10,0 C 96 % 1004,9 hPa 0,0 l/m 0 min 2 min 133 W/m 12,9 km/h (3 Bft) 100,00 %
01.10.2022 11:48 14,1 C 13,9 C 10,0 C 96 % 1004,8 hPa 0,0 l/m 0 min 0 min 149 W/m 16,1 km/h (3 Bft) 97,87 %
01.10.2022 11:46 14,1 C 13,9 C 10,0 C 96 % 1004,7 hPa 0,0 l/m 0 min 0 min 156 W/m 19,3 km/h (3 Bft) 97,87 %
01.10.2022 11:44 14,0 C 13,9 C 10,0 C 96 % 1004,7 hPa 0,0 l/m 0 min 2 min 162 W/m 19,3 km/h (3 Bft) 100,00 %
01.10.2022 11:42 13,9 C 13,9 C 10,0 C 96 % 1004,7 hPa 0,0 l/m 0 min 2 min 165 W/m 16,1 km/h (3 Bft) 100,00 %
01.10.2022 11:40 13,9 C 13,9 C 9,4 C 96 % 1004,8 hPa 0,0 l/m 0 min 2 min 154 W/m 19,3 km/h (3 Bft) 100,00 %
01.10.2022 11:38 13,9 C 13,3 C 9,4 C 96 % 1004,8 hPa 0,0 l/m 0 min 2 min 138 W/m 22,5 km/h (4 Bft) 100,00 %
01.10.2022 11:36 13,9 C 13,3 C 9,4 C 96 % 1004,8 hPa 0,0 l/m 0 min 2 min 136 W/m 16,1 km/h (3 Bft) 100,00 %
01.10.2022 11:34 13,9 C 13,3 C 9,4 C 95 % 1004,8 hPa 0,0 l/m 0 min 0 min 141 W/m 16,1 km/h (3 Bft) 100,00 %
01.10.2022 11:32 13,9 C 13,3 C 9,4 C 95 % 1004,8 hPa 0,0 l/m 0 min 2 min 143 W/m 19,3 km/h (3 Bft) 100,00 %
01.10.2022 11:30 13,8 C 13,3 C 9,4 C 95 % 1004,8 hPa 0,0 l/m 0 min 0 min 144 W/m 12,9 km/h (3 Bft) 100,00 %
01.10.2022 11:28 13,8 C 13,3 C 9,4 C 95 % 1004,8 hPa 0,0 l/m 0 min 0 min 141 W/m 6,4 km/h (2 Bft) 100,00 %
01.10.2022 11:26 13,8 C 13,3 C 9,4 C 95 % 1004,8 hPa 0,0 l/m 0 min 2 min 143 W/m 16,1 km/h (3 Bft) 100,00 %
01.10.2022 11:24 13,8 C 13,3 C 9,4 C 95 % 1004,7 hPa 0,0 l/m 0 min 2 min 134 W/m 16,1 km/h (3 Bft) 100,00 %
01.10.2022 11:22 13,8 C 13,3 C 9,4 C 95 % 1004,7 hPa 0,0 l/m 0 min 2 min 113 W/m 16,1 km/h (3 Bft) 100,00 %
01.10.2022 11:20 13,8 C 13,3 C 9,4 C 95 % 1004,7 hPa 0,0 l/m 0 min 2 min 94 W/m 9,7 km/h (2 Bft) 100,00 %
01.10.2022 11:18 13,8 C 12,8 C 9,4 C 95 % 1004,7 hPa 0,0 l/m 0 min 2 min 76 W/m 12,9 km/h (3 Bft) 100,00 %
01.10.2022 11:16 13,8 C 12,8 C 9,4 C 95 % 1004,7 hPa 0,0 l/m 0 min 2 min 64 W/m 22,5 km/h (4 Bft) 100,00 %
01.10.2022 11:14 13,8 C 12,8 C 9,4 C 95 % 1004,7 hPa 0,0 l/m 0 min 2 min 65 W/m 9,7 km/h (2 Bft) 100,00 %
01.10.2022 11:12 13,8 C 13,3 C 9,4 C 95 % 1004,6 hPa 0,0 l/m 0 min 0 min 78 W/m 9,7 km/h (2 Bft) 100,00 %
01.10.2022 11:10 13,8 C 12,8 C 9,4 C 95 % 1004,6 hPa 0,0 l/m 0 min 0 min 73 W/m 12,9 km/h (3 Bft) 100,00 %
01.10.2022 11:08 13,8 C 12,8 C 9,4 C 95 % 1004,6 hPa 0,0 l/m 0 min 0 min 66 W/m 12,9 km/h (3 Bft) 97,87 %
01.10.2022 11:06 13,8 C 13,3 C 9,4 C 95 % 1004,6 hPa 0,0 l/m 0 min 2 min 72 W/m 12,9 km/h (3 Bft) 94,74 %
01.10.2022 11:04 13,8 C 13,3 C 9,4 C 95 % 1004,5 hPa 0,0 l/m 0 min 2 min 51 W/m 12,9 km/h (3 Bft) 97,96 %
01.10.2022 11:02 13,8 C 13,3 C 9,4 C 95 % 1004,5 hPa 0,0 l/m 0 min 0 min 30 W/m 12,9 km/h (3 Bft) 98,21 %
01.10.2022 11:00 13,8 C 13,3 C 9,4 C 95 % 1004,5 hPa 0,0 l/m 0 min 0 min 45 W/m 16,1 km/h (3 Bft) 97,87 %
01.10.2022 10:58 13,9 C 13,3 C 9,4 C 95 % 1004,4 hPa 0,0 l/m 0 min 0 min 49 W/m 16,1 km/h (3 Bft) 97,37 %
01.10.2022 10:56 13,9 C 13,3 C 9,4 C 95 % 1004,4 hPa 0,0 l/m 0 min 0 min 65 W/m 12,9 km/h (3 Bft) 98,00 %
01.10.2022 10:54 13,9 C 13,3 C 9,4 C 95 % 1004,5 hPa 0,0 l/m 0 min 0 min 93 W/m 19,3 km/h (3 Bft) 97,96 %
01.10.2022 10:52 13,9 C 13,3 C 9,4 C 95 % 1004,5 hPa 0,0 l/m 0 min 0 min 101 W/m 12,9 km/h (3 Bft) 97,73 %
01.10.2022 10:50 13,8 C 13,3 C 9,4 C 95 % 1004,4 hPa 0,0 l/m 0 min 0 min 130 W/m 12,9 km/h (3 Bft) 97,87 %
01.10.2022 10:48 13,8 C 13,3 C 9,4 C 95 % 1004,4 hPa 0,0 l/m 0 min 0 min 144 W/m 16,1 km/h (3 Bft) 97,87 %
01.10.2022 10:46 13,8 C 13,3 C 9,4 C 95 % 1004,4 hPa 0,0 l/m 0 min 0 min 125 W/m 16,1 km/h (3 Bft) 97,87 %
01.10.2022 10:44 13,8 C 13,3 C 9,4 C 95 % 1004,4 hPa 0,0 l/m 0 min 0 min 95 W/m 12,9 km/h (3 Bft) 95,74 %
01.10.2022 10:42 13,8 C 13,3 C 9,4 C 95 % 1004,4 hPa 0,0 l/m 0 min 0 min 92 W/m 12,9 km/h (3 Bft) 97,83 %
01.10.2022 10:40 13,8 C 13,3 C 9,4 C 95 % 1004,3 hPa 0,0 l/m 0 min 0 min 93 W/m 12,9 km/h (3 Bft) 95,74 %
01.10.2022 10:38 13,8 C 13,3 C 9,4 C 95 % 1004,3 hPa 0,0 l/m 0 min 0 min 68 W/m 16,1 km/h (3 Bft) 97,87 %
01.10.2022 10:36 13,8 C 13,3 C 9,4 C 95 % 1004,3 hPa 0,0 l/m 0 min 0 min 68 W/m 19,3 km/h (3 Bft) 96,00 %
01.10.2022 10:34 13,8 C 13,3 C 9,4 C 95 % 1004,3 hPa 0,0 l/m 0 min 0 min 86 W/m 16,1 km/h (3 Bft) 100,00 %
01.10.2022 10:32 13,8 C 13,9 C 9,4 C 95 % 1004,2 hPa 0,0 l/m 0 min 0 min 97 W/m 9,7 km/h (2 Bft) 100,00 %
01.10.2022 10:30 13,8 C 13,9 C 9,4 C 95 % 1004,2 hPa 0,0 l/m 0 min 0 min 139 W/m 16,1 km/h (3 Bft) 97,96 %
01.10.2022 10:28 13,7 C 13,9 C 9,4 C 96 % 1004,2 hPa 0,0 l/m 0 min 0 min 195 W/m 12,9 km/h (3 Bft) 100,00 %
01.10.2022 10:26 13,6 C 13,9 C 9,4 C 96 % 1004,1 hPa 0,0 l/m 0 min 0 min 190 W/m 16,1 km/h (3 Bft) 97,73 %
01.10.2022 10:24 13,6 C 13,9 C 9,4 C 96 % 1004,1 hPa 0,0 l/m 0 min 0 min 168 W/m 16,1 km/h (3 Bft) 100,00 %
01.10.2022 10:22 13,6 C 13,9 C 9,4 C 96 % 1004,1 hPa 0,0 l/m 0 min 0 min 177 W/m 22,5 km/h (4 Bft) 100,00 %
01.10.2022 10:20 13,5 C 13,9 C 8,9 C 96 % 1004,0 hPa 0,0 l/m 0 min 0 min 180 W/m 16,1 km/h (3 Bft) 95,45 %
01.10.2022 10:18 13,5 C 13,3 C 8,9 C 96 % 1004,0 hPa 0,0 l/m 0 min 0 min 136 W/m 16,1 km/h (3 Bft) 100,00 %
01.10.2022 10:16 13,4 C 13,9 C 9,4 C 96 % 1004,0 hPa 0,0 l/m 0 min 0 min 149 W/m 16,1 km/h (3 Bft) 100,00 %
01.10.2022 10:14 13,3 C 13,9 C 9,4 C 96 % 1004,0 hPa 0,0 l/m 2 min 0 min 210 W/m 12,9 km/h (3 Bft) 100,00 %
01.10.2022 10:12 13,3 C 13,9 C 8,9 C 96 % 1004,0 hPa 0,0 l/m 2 min 0 min 225 W/m 16,1 km/h (3 Bft) 100,00 %
01.10.2022 10:10 13,2 C 13,3 C 8,9 C 96 % 1003,9 hPa 0,0 l/m 2 min 0 min 193 W/m 19,3 km/h (3 Bft) 97,37 %
01.10.2022 10:08 13,1 C 13,3 C 8,9 C 96 % 1003,9 hPa 0,0 l/m 0 min 0 min 179 W/m 12,9 km/h (3 Bft) 97,87 %
01.10.2022 10:06 13,1 C 12,8 C 8,9 C 96 % 1003,9 hPa 0,0 l/m 0 min 0 min 169 W/m 12,9 km/h (3 Bft) 98,08 %
01.10.2022 10:04 13,0 C 12,8 C 8,9 C 96 % 1003,9 hPa 0,0 l/m 0 min 0 min 150 W/m 25,7 km/h (4 Bft) 98,00 %
01.10.2022 10:02 13,0 C 12,8 C 8,9 C 96 % 1003,9 hPa 0,0 l/m 0 min 0 min 109 W/m 12,9 km/h (3 Bft) 95,74 %
01.10.2022 10:00 12,9 C 12,8 C 8,9 C 96 % 1003,9 hPa 0,0 l/m 0 min 0 min 89 W/m 19,3 km/h (3 Bft) 93,75 %
01.10.2022 09:58 12,9 C 12,8 C 8,9 C 96 % 1003,9 hPa 0,0 l/m 0 min 0 min 76 W/m 12,9 km/h (3 Bft) 94,74 %
01.10.2022 09:56 12,9 C 12,8 C 8,9 C 96 % 1003,9 hPa 0,0 l/m 0 min 0 min 102 W/m 12,9 km/h (3 Bft) 95,74 %
01.10.2022 09:54 12,9 C 12,8 C 8,9 C 96 % 1003,9 hPa 0,0 l/m 0 min 0 min 107 W/m 16,1 km/h (3 Bft) 95,92 %
01.10.2022 09:52 12,8 C 12,2 C 8,3 C 96 % 1003,9 hPa 0,0 l/m 0 min 0 min 99 W/m 12,9 km/h (3 Bft) 96,00 %
01.10.2022 09:50 12,8 C 12,2 C 8,3 C 96 % 1003,9 hPa 0,0 l/m 0 min 0 min 76 W/m 22,5 km/h (4 Bft) 96,36 %
01.10.2022 09:48 12,8 C 12,2 C 8,3 C 96 % 1003,9 hPa 0,0 l/m 0 min 0 min 77 W/m 12,9 km/h (3 Bft) 94,29 %
01.10.2022 09:46 12,8 C 12,2 C 8,3 C 96 % 1003,8 hPa 0,0 l/m 0 min 0 min 85 W/m 12,9 km/h (3 Bft) 93,75 %
01.10.2022 09:44 12,7 C 12,2 C 8,3 C 96 % 1003,9 hPa 0,0 l/m 0 min 0 min 108 W/m 16,1 km/h (3 Bft) 96,00 %
01.10.2022 09:42 12,7 C 12,2 C 8,3 C 96 % 1003,7 hPa 0,0 l/m 0 min 0 min 116 W/m 19,3 km/h (3 Bft) 92,59 %
01.10.2022 09:40 12,7 C 12,2 C 8,3 C 96 % 1003,7 hPa 0,0 l/m 0 min 0 min 80 W/m 12,9 km/h (3 Bft) 94,29 %
01.10.2022 09:38 12,7 C 12,2 C 8,3 C 96 % 1003,7 hPa 0,0 l/m 0 min 0 min 64 W/m 22,5 km/h (4 Bft) 93,62 %
01.10.2022 09:36 12,7 C 12,2 C 8,3 C 96 % 1003,8 hPa 0,0 l/m 0 min 0 min 40 W/m 19,3 km/h (3 Bft) 93,62 %
01.10.2022 09:34 12,7 C 12,2 C 8,3 C 96 % 1003,7 hPa 0,0 l/m 0 min 0 min 38 W/m 16,1 km/h (3 Bft) 95,83 %
01.10.2022 09:32 12,7 C 12,2 C 8,3 C 96 % 1003,7 hPa 0,0 l/m 0 min 0 min 26 W/m 12,9 km/h (3 Bft) 95,92 %
01.10.2022 09:30 12,6 C 12,2 C 8,3 C 96 % 1003,6 hPa 0,0 l/m 0 min 0 min 20 W/m 22,5 km/h (4 Bft) 93,62 %
01.10.2022 09:28 12,6 C 12,2 C 8,3 C 96 % 1003,7 hPa 0,0 l/m 0 min 0 min 20 W/m 12,9 km/h (3 Bft) 95,74 %
01.10.2022 09:26 12,6 C 12,2 C 8,3 C 96 % 1003,6 hPa 0,0 l/m 0 min 0 min 18 W/m 12,9 km/h (3 Bft) 94,55 %
01.10.2022 09:24 12,6 C 12,2 C 8,3 C 96 % 1003,5 hPa 0,0 l/m 0 min 0 min 18 W/m 25,7 km/h (4 Bft) 94,29 %
01.10.2022 09:22 12,6 C 12,2 C 8,3 C 96 % 1003,5 hPa 0,0 l/m 0 min 0 min 18 W/m 19,3 km/h (3 Bft) 97,92 %
01.10.2022 09:20 12,6 C 12,2 C 8,3 C 96 % 1003,5 hPa 0,0 l/m 0 min 0 min 22 W/m 25,7 km/h (4 Bft) 95,92 %
01.10.2022 09:18 12,6 C 11,7 C 8,3 C 96 % 1003,5 hPa 0,0 l/m 0 min 0 min 25 W/m 32,2 km/h (5 Bft) 98,18 %
01.10.2022 09:16 12,6 C 11,7 C 8,3 C 96 % 1003,5 hPa 0,0 l/m 0 min 0 min 22 W/m 12,9 km/h (3 Bft) 100,00 %
01.10.2022 09:14 12,5 C 11,7 C 8,3 C 96 % 1003,4 hPa 0,0 l/m 0 min 0 min 30 W/m 12,9 km/h (3 Bft) 100,00 %
01.10.2022 09:12 12,5 C 11,7 C 8,3 C 96 % 1003,4 hPa 0,0 l/m 0 min 0 min 25 W/m 16,1 km/h (3 Bft) 100,00 %
01.10.2022 09:10 12,5 C 11,7 C 8,3 C 96 % 1003,4 hPa 0,0 l/m 0 min 0 min 15 W/m 19,3 km/h (3 Bft) 97,87 %
01.10.2022 09:08 12,5 C 12,2 C 8,3 C 96 % 1003,3 hPa 0,0 l/m 0 min 0 min 27 W/m 35,4 km/h (5 Bft) 97,83 %
01.10.2022 09:06 12,4 C 12,2 C 8,3 C 96 % 1003,3 hPa 0,0 l/m 0 min 0 min 48 W/m 35,4 km/h (5 Bft) 96,00 %
01.10.2022 09:04 12,4 C 11,7 C 8,3 C 96 % 1003,2 hPa 0,0 l/m 0 min 0 min 48 W/m 29,0 km/h (5 Bft) 97,87 %
01.10.2022 09:02 12,4 C 11,7 C 7,8 C 96 % 1003,2 hPa 0,0 l/m 0 min 0 min 40 W/m 32,2 km/h (5 Bft) 97,87 %
01.10.2022 09:00 12,4 C 11,7 C 7,8 C 96 % 1003,2 hPa 0,0 l/m 0 min 0 min 32 W/m 16,1 km/h (3 Bft) 97,87 %
01.10.2022 08:58 12,3 C 11,7 C 7,8 C 96 % 1003,2 hPa 0,0 l/m 0 min 0 min 31 W/m 29,0 km/h (5 Bft) 97,96 %
01.10.2022 08:56 12,3 C 11,7 C 7,8 C 96 % 1003,3 hPa 0,0 l/m 0 min 0 min 24 W/m 25,7 km/h (4 Bft) 97,44 %
01.10.2022 08:54 12,3 C 11,7 C 7,8 C 96 % 1003,2 hPa 0,0 l/m 0 min 0 min 25 W/m 19,3 km/h (3 Bft) 97,96 %
01.10.2022 08:52 12,3 C 11,7 C 7,8 C 96 % 1003,2 hPa 0,0 l/m 0 min 0 min 25 W/m 16,1 km/h (3 Bft) 98,18 %
01.10.2022 08:50 12,3 C 11,7 C 7,8 C 96 % 1003,1 hPa 0,0 l/m 0 min 0 min 21 W/m 29,0 km/h (5 Bft) 97,87 %
01.10.2022 08:48 12,2 C 11,7 C 7,8 C 97 % 1003,2 hPa 0,0 l/m 0 min 0 min 26 W/m 29,0 km/h (5 Bft) 97,22 %
01.10.2022 08:46 12,2 C 11,7 C 7,8 C 97 % 1003,1 hPa 0,0 l/m 0 min 0 min 25 W/m 16,1 km/h (3 Bft) 98,00 %
01.10.2022 08:44 12,2 C 11,7 C 7,8 C 96 % 1003,2 hPa 0,0 l/m 0 min 0 min 21 W/m 29,0 km/h (5 Bft) 98,15 %
01.10.2022 08:42 12,2 C 11,7 C 7,8 C 96 % 1003,2 hPa 0,0 l/m 0 min 0 min 14 W/m 19,3 km/h (3 Bft) 97,87 %
01.10.2022 08:40 12,2 C 11,7 C 7,8 C 96 % 1003,1 hPa 0,0 l/m 0 min 0 min 13 W/m 38,6 km/h (5 Bft) 97,87 %
01.10.2022 08:38 12,2 C 11,7 C 7,8 C 97 % 1003,2 hPa 0,0 l/m 0 min 0 min 13 W/m 29,0 km/h (5 Bft) 95,74 %
01.10.2022 08:36 12,1 C 11,7 C 7,8 C 97 % 1003,1 hPa 0,0 l/m 0 min 0 min 22 W/m 25,7 km/h (4 Bft) 97,87 %
01.10.2022 08:34 12,1 C 11,7 C 7,8 C 97 % 1003,2 hPa 0,0 l/m 0 min 0 min 26 W/m 22,5 km/h (4 Bft) 100,00 %
01.10.2022 08:32 12,1 C 11,7 C 7,8 C 97 % 1003,1 hPa 0,0 l/m 0 min 0 min 20 W/m 22,5 km/h (4 Bft) 100,00 %
01.10.2022 08:30 12,1 C 11,7 C 7,8 C 97 % 1003,1 hPa 0,0 l/m 0 min 0 min 21 W/m 29,0 km/h (5 Bft) 100,00 %
01.10.2022 08:28 12,1 C 11,7 C 7,8 C 97 % 1003,1 hPa 0,0 l/m 0 min 0 min 22 W/m 22,5 km/h (4 Bft) 100,00 %
01.10.2022 08:26 12,0 C 11,7 C 7,8 C 97 % 1003,2 hPa 0,0 l/m 0 min 0 min 17 W/m 19,3 km/h (3 Bft) 95,74 %
01.10.2022 08:24 11,9 C 11,7 C 7,8 C 97 % 1003,2 hPa 0,0 l/m 0 min 0 min 14 W/m 22,5 km/h (4 Bft) 100,00 %
01.10.2022 08:22 11,9 C 11,1 C 7,8 C 97 % 1003,2 hPa 0,0 l/m 0 min 0 min 13 W/m 19,3 km/h (3 Bft) 100,00 %
01.10.2022 08:20 11,9 C 11,1 C 7,8 C 97 % 1003,2 hPa 0,0 l/m 0 min 0 min 12 W/m 19,3 km/h (3 Bft) 100,00 %
01.10.2022 08:18 11,9 C 11,1 C 7,8 C 97 % 1003,1 hPa 0,0 l/m 0 min 0 min 11 W/m 19,3 km/h (3 Bft) 100,00 %
01.10.2022 08:16 11,9 C 11,1 C 7,8 C 97 % 1003,1 hPa 0,0 l/m 0 min 0 min 11 W/m 9,7 km/h (2 Bft) 97,87 %
01.10.2022 08:14 11,9 C 11,1 C 7,8 C 97 % 1003,1 hPa 0,0 l/m 0 min 0 min 11 W/m 12,9 km/h (3 Bft) 97,22 %
01.10.2022 08:12 11,9 C 11,1 C 7,8 C 97 % 1003,1 hPa 0,0 l/m 0 min 0 min 9 W/m 16,1 km/h (3 Bft) 100,00 %
01.10.2022 08:10 11,9 C 11,1 C 7,8 C 97 % 1003,1 hPa 0,0 l/m 0 min 0 min 6 W/m 6,4 km/h (2 Bft) 100,00 %
01.10.2022 08:08 11,8 C 11,1 C 7,8 C 97 % 1003,1 hPa 0,0 l/m 0 min 0 min 3 W/m 3,2 km/h (1 Bft) 100,00 %
01.10.2022 08:06 11,9 C 11,1 C 7,8 C 96 % 1003,1 hPa 0,0 l/m 0 min 0 min 0 W/m 6,4 km/h (2 Bft) 96,36 %
01.10.2022 08:04 11,8 C 11,1 C 7,8 C 96 % 1003,1 hPa 0,0 l/m 0 min 0 min 0 W/m 9,7 km/h (2 Bft) 100,00 %
01.10.2022 08:02 11,9 C 11,1 C 7,8 C 96 % 1003,1 hPa 0,0 l/m 0 min 0 min 0 W/m 6,4 km/h (2 Bft) 94,29 %
01.10.2022 08:00 11,8 C 11,1 C 7,8 C 97 % 1003,1 hPa 0,0 l/m 0 min 0 min 0 W/m 19,3 km/h (3 Bft) 100,00 %
01.10.2022 07:58 11,8 C 11,1 C 7,8 C 97 % 1003,1 hPa 0,0 l/m 0 min 0 min 0 W/m 16,1 km/h (3 Bft) 100,00 %
01.10.2022 07:56 11,8 C 11,1 C 7,8 C 97 % 1003,1 hPa 0,2 l/m 0 min 2 min 0 W/m 19,3 km/h (3 Bft) 98,00 %
01.10.2022 07:54 11,9 C 11,1 C 7,8 C 97 % 1003,0 hPa 0,0 l/m 0 min 2 min 0 W/m 19,3 km/h (3 Bft) 100,00 %
01.10.2022 07:52 11,8 C 11,1 C 7,8 C 96 % 1002,9 hPa 0,0 l/m 0 min 2 min 0 W/m 19,3 km/h (3 Bft) 97,87 %
01.10.2022 07:50 11,8 C 11,1 C 7,8 C 96 % 1002,9 hPa 0,0 l/m 0 min 2 min 0 W/m 25,7 km/h (4 Bft) 100,00 %
01.10.2022 07:48 11,8 C 11,1 C 7,8 C 96 % 1002,8 hPa 0,2 l/m 0 min 2 min 0 W/m 22,5 km/h (4 Bft) 100,00 %
01.10.2022 07:46 11,8 C 11,1 C 7,8 C 97 % 1002,8 hPa 0,0 l/m 0 min 2 min 0 W/m 19,3 km/h (3 Bft) 100,00 %
01.10.2022 07:44 11,8 C 11,1 C 7,2 C 97 % 1002,7 hPa 0,0 l/m 0 min 2 min 0 W/m 19,3 km/h (3 Bft) 97,87 %
01.10.2022 07:42 11,8 C 11,1 C 7,2 C 97 % 1002,7 hPa 0,0 l/m 0 min 0 min 0 W/m 32,2 km/h (5 Bft) 100,00 %
01.10.2022 07:40 11,8 C 11,1 C 7,2 C 97 % 1002,7 hPa 0,0 l/m 0 min 0 min 0 W/m 32,2 km/h (5 Bft) 100,00 %
01.10.2022 07:38 11,8 C 11,1 C 7,2 C 97 % 1002,7 hPa 0,0 l/m 0 min 0 min 0 W/m 32,2 km/h (5 Bft) 100,00 %
01.10.2022 07:36 11,7 C 11,1 C 7,2 C 97 % 1002,7 hPa 0,0 l/m 0 min 0 min 0 W/m 22,5 km/h (4 Bft) 98,31 %
01.10.2022 07:34 11,7 C 11,1 C 7,2 C 97 % 1002,6 hPa 0,0 l/m 0 min 0 min 0 W/m 38,6 km/h (5 Bft) 100,00 %
01.10.2022 07:32 11,7 C 11,1 C 7,2 C 97 % 1002,6 hPa 0,0 l/m 0 min 0 min 0 W/m 25,7 km/h (4 Bft) 98,15 %
01.10.2022 07:30 11,6 C 11,1 C 7,2 C 97 % 1002,6 hPa 0,0 l/m 0 min 0 min 0 W/m 32,2 km/h (5 Bft) 97,87 %
01.10.2022 07:28 11,6 C 11,1 C 7,2 C 97 % 1002,6 hPa 0,0 l/m 0 min 0 min 0 W/m 25,7 km/h (4 Bft) 95,83 %
01.10.2022 07:26 11,6 C 11,1 C 7,2 C 97 % 1002,6 hPa 0,0 l/m 0 min 0 min 0 W/m 16,1 km/h (3 Bft) 97,37 %
01.10.2022 07:24 11,6 C 11,1 C 7,2 C 97 % 1002,6 hPa 0,0 l/m 0 min 0 min 0 W/m 25,7 km/h (4 Bft) 94,55 %
01.10.2022 07:22 11,6 C 11,1 C 7,2 C 97 % 1002,5 hPa 0,0 l/m 0 min 0 min 0 W/m 41,8 km/h (6 Bft) 97,83 %
01.10.2022 07:20 11,5 C 11,1 C 7,2 C 97 % 1002,5 hPa 0,0 l/m 0 min 0 min 0 W/m 22,5 km/h (4 Bft) 95,83 %
01.10.2022 07:18 11,5 C 10,6 C 7,2 C 97 % 1002,6 hPa 0,0 l/m 0 min 0 min 0 W/m 12,9 km/h (3 Bft) 92,11 %
01.10.2022 07:16 11,5 C 10,6 C 7,2 C 97 % 1002,6 hPa 0,0 l/m 0 min 0 min 0 W/m 19,3 km/h (3 Bft) 96,36 %
01.10.2022 07:14 11,4 C 10,6 C 7,2 C 97 % 1002,6 hPa 0,0 l/m 0 min 0 min 0 W/m 12,9 km/h (3 Bft) 95,74 %
01.10.2022 07:12 11,4 C 10,6 C 7,2 C 97 % 1002,6 hPa 0,0 l/m 0 min 2 min 0 W/m 16,1 km/h (3 Bft) 95,65 %
01.10.2022 07:10 11,4 C 10,6 C 7,2 C 97 % 1002,6 hPa 0,0 l/m 0 min 2 min 0 W/m 22,5 km/h (4 Bft) 93,62 %
01.10.2022 07:08 11,4 C 10,6 C 7,2 C 97 % 1002,5 hPa 0,0 l/m 0 min 2 min 0 W/m 25,7 km/h (4 Bft) 93,62 %
01.10.2022 07:06 11,4 C 10,6 C 7,2 C 97 % 1002,6 hPa 0,0 l/m 0 min 2 min 0 W/m 19,3 km/h (3 Bft) 91,49 %
01.10.2022 07:04 11,3 C 10,6 C 7,2 C 97 % 1002,6 hPa 0,0 l/m 0 min 2 min 0 W/m 12,9 km/h (3 Bft) 94,00 %
01.10.2022 07:02 11,3 C 10,6 C 7,2 C 97 % 1002,6 hPa 0,0 l/m 0 min 2 min 0 W/m 19,3 km/h (3 Bft) 91,30 %
01.10.2022 07:00 11,3 C 10,6 C 7,2 C 97 % 1002,6 hPa 0,0 l/m 0 min 0 min 0 W/m 12,9 km/h (3 Bft) 89,36 %
01.10.2022 06:58 11,3 C 10,6 C 7,2 C 97 % 1002,6 hPa 0,0 l/m 0 min 0 min 0 W/m 32,2 km/h (5 Bft) 97,37 %
01.10.2022 06:56 11,3 C 10,6 C 7,2 C 97 % 1002,6 hPa 0,0 l/m 0 min 2 min 0 W/m 16,1 km/h (3 Bft) 93,75 %
01.10.2022 06:54 11,3 C 10,6 C 7,2 C 97 % 1002,6 hPa 0,0 l/m 0 min 2 min 0 W/m 22,5 km/h (4 Bft) 90,74 %
01.10.2022 06:52 11,2 C 10,6 C 7,2 C 97 % 1002,7 hPa 0,0 l/m 0 min 0 min 0 W/m 16,1 km/h (3 Bft) 94,59 %
01.10.2022 06:50 11,2 C 10,6 C 7,2 C 97 % 1002,6 hPa 0,0 l/m 0 min 0 min 0 W/m 16,1 km/h (3 Bft) 92,00 %
01.10.2022 06:48 11,2 C 10,6 C 7,2 C 97 % 1002,5 hPa 0,0 l/m 0 min 0 min 0 W/m 6,4 km/h (2 Bft) 94,34 %
01.10.2022 06:46 11,2 C 10,6 C 7,2 C 97 % 1002,5 hPa 0,0 l/m 0 min 0 min 0 W/m 22,5 km/h (4 Bft) 97,87 %
01.10.2022 06:44 11,2 C 10,6 C 7,2 C 97 % 1002,6 hPa 0,0 l/m 0 min 0 min 0 W/m 12,9 km/h (3 Bft) 91,89 %
01.10.2022 06:42 11,1 C 10,6 C 7,2 C 97 % 1002,6 hPa 0,0 l/m 0 min 0 min 0 W/m 9,7 km/h (2 Bft) 94,00 %
01.10.2022 06:40 11,1 C 10,6 C 7,2 C 97 % 1002,7 hPa 0,0 l/m 0 min 0 min 0 W/m 6,4 km/h (2 Bft) 97,87 %
01.10.2022 06:38 11,1 C 10,6 C 7,2 C 97 % 1002,7 hPa 0,0 l/m 0 min 0 min 0 W/m 9,7 km/h (2 Bft) 97,87 %
01.10.2022 06:36 11,1 C 10,6 C 7,2 C 97 % 1002,7 hPa 0,0 l/m 0 min 0 min 0 W/m 3,2 km/h (1 Bft) 96,23 %
01.10.2022 06:34 11,1 C 10,6 C 7,2 C 97 % 1002,9 hPa 0,0 l/m 0 min 0 min 0 W/m 3,2 km/h (1 Bft) 93,62 %
01.10.2022 06:32 11,1 C 10,6 C 7,2 C 97 % 1003,0 hPa 0,0 l/m 0 min 0 min 0 W/m 6,4 km/h (2 Bft) 97,30 %
01.10.2022 06:30 11,1 C 10,6 C 7,2 C 97 % 1003,0 hPa 0,0 l/m 0 min 0 min 0 W/m 16,1 km/h (3 Bft) 94,00 %
01.10.2022 06:28 11,1 C 10,6 C 7,2 C 97 % 1003,0 hPa 0,0 l/m 0 min 0 min 0 W/m 6,4 km/h (2 Bft) 98,15 %
01.10.2022 06:26 11,1 C 10,6 C 7,2 C 97 % 1003,0 hPa 0,0 l/m 0 min 0 min 0 W/m 12,9 km/h (3 Bft) 100,00 %
01.10.2022 06:24 11,1 C 10,6 C 6,7 C 97 % 1002,9 hPa 0,0 l/m 0 min 0 min 0 W/m 12,9 km/h (3 Bft) 100,00 %
01.10.2022 06:22 11,1 C 10,6 C 7,2 C 97 % 1002,9 hPa 0,0 l/m 0 min 0 min 0 W/m 9,7 km/h (2 Bft) 100,00 %
01.10.2022 06:20 11,1 C 10,6 C 6,7 C 97 % 1003,0 hPa 0,0 l/m 0 min 0 min 0 W/m 12,9 km/h (3 Bft) 100,00 %
01.10.2022 06:18 11,0 C 10,6 C 6,7 C 97 % 1002,7 hPa 0,0 l/m 0 min 0 min 0 W/m 12,9 km/h (3 Bft) 100,00 %
01.10.2022 06:16 11,0 C 10,6 C 6,7 C 97 % 1002,7 hPa 0,0 l/m 0 min 0 min 0 W/m 12,9 km/h (3 Bft) 100,00 %
01.10.2022 06:14 11,0 C 10,6 C 6,7 C 97 % 1002,8 hPa 0,0 l/m 0 min 0 min 0 W/m 16,1 km/h (3 Bft) 97,83 %
01.10.2022 06:12 11,0 C 10,0 C 6,7 C 97 % 1002,8 hPa 0,0 l/m 0 min 0 min 0 W/m 22,5 km/h (4 Bft) 100,00 %
01.10.2022 06:10 11,0 C 10,0 C 6,7 C 97 % 1002,8 hPa 0,0 l/m 0 min 0 min 0 W/m 12,9 km/h (3 Bft) 100,00 %
01.10.2022 06:08 10,9 C 10,0 C 6,7 C 97 % 1002,9 hPa 0,0 l/m 0 min 0 min 0 W/m 16,1 km/h (3 Bft) 100,00 %
01.10.2022 06:04 10,9 C 10,0 C 6,7 C 97 % 1003,1 hPa 0,0 l/m 0 min 0 min 0 W/m 12,9 km/h (3 Bft) 100,00 %
01.10.2022 06:02 10,9 C 10,0 C 6,7 C 97 % 1003,1 hPa 0,0 l/m 0 min 0 min 0 W/m 12,9 km/h (3 Bft) 97,22 %
01.10.2022 06:00 10,9 C 10,0 C 6,7 C 97 % 1003,0 hPa 0,0 l/m 0 min 0 min 0 W/m 6,4 km/h (2 Bft) 100,00 %
01.10.2022 05:58 10,9 C 10,0 C 6,7 C 96 % 1003,1 hPa 0,0 l/m 0 min 0 min 0 W/m 9,7 km/h (2 Bft) 100,00 %
01.10.2022 05:56 10,9 C 10,0 C 6,7 C 96 % 1002,9 hPa 0,0 l/m 0 min 0 min 0 W/m 16,1 km/h (3 Bft) 100,00 %
01.10.2022 05:54 10,9 C 10,0 C 6,7 C 96 % 1002,8 hPa 0,0 l/m 0 min 0 min 0 W/m 6,4 km/h (2 Bft) 100,00 %
01.10.2022 05:52 10,9 C 10,0 C 6,7 C 96 % 1002,8 hPa 0,0 l/m 0 min 0 min 0 W/m 6,4 km/h (2 Bft) 97,14 %
01.10.2022 05:50 10,9 C 10,0 C 6,7 C 96 % 1002,8 hPa 0,0 l/m 0 min 0 min 0 W/m 12,9 km/h (3 Bft) 100,00 %
01.10.2022 05:48 10,9 C 10,0 C 6,7 C 96 % 1002,8 hPa 0,0 l/m 0 min 0 min 0 W/m 12,9 km/h (3 Bft) 100,00 %
01.10.2022 05:46 10,8 C 10,0 C 6,7 C 96 % 1002,9 hPa 0,0 l/m 0 min 0 min 0 W/m 6,4 km/h (2 Bft) 98,00 %
01.10.2022 05:44 10,8 C 10,0 C 6,7 C 96 % 1002,9 hPa 0,0 l/m 0 min 0 min 0 W/m 6,4 km/h (2 Bft) 100,00 %
01.10.2022 05:42 10,8 C 10,0 C 6,7 C 96 % 1003,0 hPa 0,0 l/m 0 min 0 min 0 W/m 9,7 km/h (2 Bft) 100,00 %
01.10.2022 05:40 10,8 C 10,0 C 6,7 C 96 % 1002,9 hPa 0,0 l/m 0 min 2 min 0 W/m 6,4 km/h (2 Bft) 100,00 %
01.10.2022 05:38 10,8 C 10,0 C 6,7 C 96 % 1003,1 hPa 0,0 l/m 0 min 2 min 0 W/m 12,9 km/h (3 Bft) 100,00 %
01.10.2022 05:36 10,8 C 10,0 C 6,7 C 96 % 1003,1 hPa 0,0 l/m 0 min 0 min 0 W/m 12,9 km/h (3 Bft) 100,00 %
01.10.2022 05:34 10,8 C 10,0 C 6,7 C 96 % 1003,1 hPa 0,2 l/m 0 min 0 min 0 W/m 6,4 km/h (2 Bft) 97,87 %
01.10.2022 05:32 10,8 C 10,0 C 6,7 C 96 % 1003,1 hPa 0,0 l/m 0 min 0 min 0 W/m 9,7 km/h (2 Bft) 97,87 %
01.10.2022 05:30 10,9 C 10,0 C 6,7 C 96 % 1003,1 hPa 0,0 l/m 0 min 0 min 0 W/m 9,7 km/h (2 Bft) 100,00 %
01.10.2022 05:28 10,8 C 10,0 C 6,7 C 96 % 1003,3 hPa 0,0 l/m 0 min 0 min 0 W/m 16,1 km/h (3 Bft) 100,00 %
01.10.2022 05:26 10,8 C 10,0 C 6,7 C 96 % 1003,1 hPa 0,0 l/m 0 min 0 min 0 W/m 16,1 km/h (3 Bft) 100,00 %
01.10.2022 05:24 10,9 C 10,0 C 6,7 C 95 % 1003,1 hPa 0,0 l/m 0 min 2 min 0 W/m 12,9 km/h (3 Bft) 100,00 %
01.10.2022 05:22 10,9 C 10,0 C 6,7 C 95 % 1003,1 hPa 0,2 l/m 0 min 2 min 0 W/m 12,9 km/h (3 Bft) 100,00 %
01.10.2022 05:20 10,9 C 10,0 C 6,7 C 95 % 1003,2 hPa 0,4 l/m 0 min 2 min 0 W/m 6,4 km/h (2 Bft) 97,87 %
01.10.2022 05:18 10,9 C 10,0 C 6,7 C 95 % 1003,3 hPa 0,0 l/m 0 min 2 min 0 W/m 6,4 km/h (2 Bft) 95,74 %
01.10.2022 05:16 10,9 C 10,0 C 6,7 C 95 % 1003,5 hPa 0,2 l/m 0 min 2 min 0 W/m 12,9 km/h (3 Bft) 97,87 %
01.10.2022 05:14 10,9 C 10,0 C 6,7 C 95 % 1003,6 hPa 0,4 l/m 0 min 2 min 0 W/m 22,5 km/h (4 Bft) 97,87 %
01.10.2022 05:12 10,9 C 10,0 C 6,7 C 95 % 1003,7 hPa 0,2 l/m 0 min 2 min 0 W/m 16,1 km/h (3 Bft) 97,83 %
01.10.2022 05:10 10,9 C 10,0 C 6,7 C 95 % 1003,7 hPa 0,2 l/m 0 min 2 min 0 W/m 12,9 km/h (3 Bft) 97,87 %
01.10.2022 05:08 10,9 C 10,0 C 6,7 C 95 % 1003,7 hPa 0,2 l/m 0 min 2 min 0 W/m 12,9 km/h (3 Bft) 97,87 %
01.10.2022 05:06 10,9 C 10,0 C 6,7 C 95 % 1003,7 hPa 0,0 l/m 0 min 2 min 0 W/m 12,9 km/h (3 Bft) 97,87 %
01.10.2022 05:04 10,9 C 10,0 C 6,7 C 95 % 1003,7 hPa 0,2 l/m 0 min 2 min 0 W/m 12,9 km/h (3 Bft) 95,83 %
01.10.2022 05:02 10,9 C 10,0 C 6,7 C 95 % 1003,7 hPa 0,0 l/m 0 min 2 min 0 W/m 12,9 km/h (3 Bft) 95,65 %
01.10.2022 05:00 10,9 C 10,0 C 6,7 C 95 % 1003,8 hPa 0,2 l/m 0 min 2 min 0 W/m 16,1 km/h (3 Bft) 95,74 %
01.10.2022 04:58 11,0 C 10,0 C 6,7 C 95 % 1003,8 hPa 0,0 l/m 0 min 2 min 0 W/m 16,1 km/h (3 Bft) 95,74 %
01.10.2022 04:56 11,0 C 10,0 C 6,7 C 95 % 1003,8 hPa 0,0 l/m 0 min 2 min 0 W/m 16,1 km/h (3 Bft) 95,74 %
01.10.2022 04:54 11,0 C 10,0 C 6,7 C 95 % 1003,9 hPa 0,2 l/m 0 min 2 min 0 W/m 12,9 km/h (3 Bft) 95,74 %
01.10.2022 04:52 11,0 C 10,0 C 6,7 C 95 % 1004,0 hPa 0,0 l/m 0 min 2 min 0 W/m 6,4 km/h (2 Bft) 95,74 %
01.10.2022 04:50 11,0 C 10,0 C 6,7 C 94 % 1004,0 hPa 0,2 l/m 0 min 2 min 0 W/m 9,7 km/h (2 Bft) 95,74 %
01.10.2022 04:48 11,0 C 10,0 C 6,7 C 94 % 1004,0 hPa 0,0 l/m 0 min 2 min 0 W/m 16,1 km/h (3 Bft) 93,48 %
01.10.2022 04:46 11,1 C 10,0 C 6,7 C 94 % 1004,2 hPa 0,0 l/m 0 min 2 min 0 W/m 9,7 km/h (2 Bft) 97,87 %
01.10.2022 04:44 11,1 C 10,0 C 6,7 C 94 % 1004,3 hPa 0,0 l/m 0 min 2 min 0 W/m 19,3 km/h (3 Bft) 97,87 %
01.10.2022 04:42 11,1 C 10,0 C 6,7 C 94 % 1004,2 hPa 0,0 l/m 0 min 2 min 0 W/m 9,7 km/h (2 Bft) 97,87 %
01.10.2022 04:40 11,1 C 10,0 C 6,7 C 94 % 1004,2 hPa 0,4 l/m 0 min 2 min 0 W/m 9,7 km/h (2 Bft) 93,62 %
01.10.2022 04:38 11,1 C 10,0 C 6,7 C 94 % 1004,1 hPa 0,0 l/m 0 min 2 min 0 W/m 6,4 km/h (2 Bft) 97,83 %
01.10.2022 04:36 11,1 C 10,0 C 6,7 C 94 % 1004,0 hPa 0,2 l/m 0 min 2 min 0 W/m 12,9 km/h (3 Bft) 97,87 %
01.10.2022 04:34 11,1 C 10,0 C 6,7 C 94 % 1004,4 hPa 0,2 l/m 0 min 2 min 0 W/m 16,1 km/h (3 Bft) 97,87 %
01.10.2022 04:32 11,1 C 10,0 C 6,7 C 94 % 1004,4 hPa 0,0 l/m 0 min 2 min 0 W/m 22,5 km/h (4 Bft) 97,87 %
01.10.2022 04:30 11,1 C 10,0 C 6,7 C 94 % 1004,3 hPa 0,2 l/m 0 min 2 min 0 W/m 22,5 km/h (4 Bft) 97,87 %
01.10.2022 04:28 11,2 C 10,0 C 6,7 C 93 % 1004,4 hPa 0,2 l/m 0 min 2 min 0 W/m 22,5 km/h (4 Bft) 95,74 %
01.10.2022 04:26 11,2 C 10,0 C 6,7 C 93 % 1004,4 hPa 0,2 l/m 0 min 2 min 0 W/m 12,9 km/h (3 Bft) 97,83 %
01.10.2022 04:24 11,2 C 10,0 C 6,7 C 93 % 1004,5 hPa 0,2 l/m 0 min 2 min 0 W/m 25,7 km/h (4 Bft) 97,87 %
01.10.2022 04:22 11,2 C 10,0 C 6,7 C 93 % 1004,4 hPa 0,0 l/m 0 min 2 min 0 W/m 22,5 km/h (4 Bft) 97,87 %
01.10.2022 04:20 11,2 C 10,0 C 6,7 C 93 % 1004,5 hPa 0,0 l/m 0 min 2 min 0 W/m 12,9 km/h (3 Bft) 100,00 %
01.10.2022 04:18 11,2 C 10,0 C 6,7 C 93 % 1004,6 hPa 0,0 l/m 0 min 2 min 0 W/m 9,7 km/h (2 Bft) 97,87 %
01.10.2022 04:16 11,2 C 10,0 C 6,7 C 93 % 1004,6 hPa 0,2 l/m 0 min 2 min 0 W/m 12,9 km/h (3 Bft) 95,74 %
01.10.2022 04:14 11,2 C 10,0 C 6,7 C 93 % 1004,6 hPa 0,0 l/m 0 min 2 min 0 W/m 22,5 km/h (4 Bft) 97,83 %
01.10.2022 04:12 11,2 C 10,0 C 6,7 C 93 % 1004,7 hPa 0,2 l/m 0 min 2 min 0 W/m 19,3 km/h (3 Bft) 93,62 %
01.10.2022 04:10 11,2 C 10,6 C 6,7 C 93 % 1004,6 hPa 0,0 l/m 0 min 2 min 0 W/m 32,2 km/h (5 Bft) 97,87 %
01.10.2022 04:08 11,2 C 10,6 C 6,7 C 93 % 1004,6 hPa 0,0 l/m 0 min 2 min 0 W/m 16,1 km/h (3 Bft) 95,74 %
01.10.2022 04:06 11,2 C 10,6 C 6,7 C 93 % 1004,6 hPa 0,0 l/m 0 min 2 min 0 W/m 16,1 km/h (3 Bft) 97,87 %
01.10.2022 04:04 11,2 C 10,6 C 6,1 C 93 % 1004,6 hPa 0,0 l/m 0 min 2 min 0 W/m 25,7 km/h (4 Bft) 97,87 %
01.10.2022 04:02 11,2 C 10,6 C 6,7 C 93 % 1004,6 hPa 0,2 l/m 0 min 2 min 0 W/m 35,4 km/h (5 Bft) 97,87 %
01.10.2022 04:00 11,2 C 10,6 C 6,7 C 93 % 1004,6 hPa 0,0 l/m 0 min 2 min 0 W/m 25,7 km/h (4 Bft) 97,83 %
01.10.2022 03:58 11,2 C 10,6 C 6,1 C 93 % 1004,7 hPa 0,0 l/m 0 min 2 min 0 W/m 25,7 km/h (4 Bft) 97,87 %
01.10.2022 03:56 11,2 C 10,6 C 6,1 C 93 % 1004,6 hPa 0,0 l/m 0 min 2 min 0 W/m 29,0 km/h (5 Bft) 95,65 %
01.10.2022 03:54 11,2 C 10,6 C 6,7 C 93 % 1004,5 hPa 0,0 l/m 0 min 2 min 0 W/m 12,9 km/h (3 Bft) 96,08 %
01.10.2022 03:52 11,2 C 10,6 C 6,1 C 92 % 1004,5 hPa 0,0 l/m 0 min 2 min 0 W/m 19,3 km/h (3 Bft) 97,87 %
01.10.2022 03:50 11,2 C 10,6 C 6,1 C 93 % 1004,6 hPa 0,0 l/m 0 min 2 min 0 W/m 25,7 km/h (4 Bft) 97,83 %
01.10.2022 03:48 11,2 C 10,6 C 6,1 C 93 % 1004,6 hPa 0,0 l/m 0 min 2 min 0 W/m 16,1 km/h (3 Bft) 97,87 %
01.10.2022 03:46 11,2 C 10,6 C 6,1 C 93 % 1004,6 hPa 0,0 l/m 0 min 0 min 0 W/m 16,1 km/h (3 Bft) 97,87 %
01.10.2022 03:44 11,2 C 10,6 C 6,7 C 93 % 1004,5 hPa 0,0 l/m 0 min 2 min 0 W/m 12,9 km/h (3 Bft) 97,87 %
01.10.2022 03:42 11,2 C 10,6 C 6,1 C 93 % 1004,6 hPa 0,0 l/m 0 min 2 min 0 W/m 16,1 km/h (3 Bft) 97,87 %
01.10.2022 03:40 11,2 C 10,6 C 6,1 C 92 % 1004,5 hPa 0,2 l/m 0 min 2 min 0 W/m 16,1 km/h (3 Bft) 97,87 %
01.10.2022 03:38 11,1 C 10,6 C 6,1 C 92 % 1004,4 hPa 0,0 l/m 0 min 0 min 0 W/m 19,3 km/h (3 Bft) 95,65 %
01.10.2022 03:36 11,1 C 10,6 C 6,1 C 92 % 1004,3 hPa 0,0 l/m 0 min 2 min 0 W/m 25,7 km/h (4 Bft) 95,74 %
01.10.2022 03:34 11,1 C 10,6 C 6,1 C 92 % 1004,2 hPa 0,0 l/m 0 min 2 min 0 W/m 25,7 km/h (4 Bft) 95,74 %
01.10.2022 03:32 11,1 C 10,0 C 6,1 C 92 % 1004,2 hPa 0,0 l/m 0 min 0 min 0 W/m 22,5 km/h (4 Bft) 97,87 %
01.10.2022 03:30 11,2 C 10,0 C 6,1 C 92 % 1004,4 hPa 0,0 l/m 0 min 0 min 0 W/m 19,3 km/h (3 Bft) 97,87 %
01.10.2022 03:28 11,2 C 10,0 C 6,1 C 92 % 1004,5 hPa 0,0 l/m 0 min 2 min 0 W/m 22,5 km/h (4 Bft) 95,74 %
01.10.2022 03:26 11,2 C 10,0 C 6,1 C 92 % 1004,6 hPa 0,0 l/m 0 min 2 min 0 W/m 12,9 km/h (3 Bft) 93,48 %
01.10.2022 03:24 11,2 C 10,0 C 6,1 C 92 % 1004,6 hPa 0,0 l/m 0 min 2 min 0 W/m 16,1 km/h (3 Bft) 100,00 %
01.10.2022 03:22 11,2 C 10,0 C 6,1 C 92 % 1004,6 hPa 0,0 l/m 0 min 2 min 0 W/m 35,4 km/h (5 Bft) 97,87 %
01.10.2022 03:20 11,2 C 10,0 C 6,1 C 92 % 1004,7 hPa 0,0 l/m 0 min 2 min 0 W/m 19,3 km/h (3 Bft) 97,87 %
01.10.2022 03:18 11,2 C 10,0 C 6,1 C 92 % 1004,8 hPa 0,0 l/m 0 min 2 min 0 W/m 29,0 km/h (5 Bft) 97,87 %
01.10.2022 03:16 11,2 C 10,0 C 6,1 C 92 % 1004,8 hPa 0,0 l/m 0 min 2 min 0 W/m 22,5 km/h (4 Bft) 97,87 %
01.10.2022 03:14 11,3 C 10,0 C 6,1 C 92 % 1004,9 hPa 0,0 l/m 0 min 0 min 0 W/m 16,1 km/h (3 Bft) 97,83 %
01.10.2022 03:12 11,3 C 10,0 C 6,1 C 91 % 1005,1 hPa 0,0 l/m 0 min 2 min 0 W/m 19,3 km/h (3 Bft) 95,74 %
01.10.2022 03:10 11,3 C 10,0 C 6,7 C 91 % 1005,2 hPa 0,0 l/m 0 min 2 min 0 W/m 19,3 km/h (3 Bft) 97,87 %
01.10.2022 03:08 11,3 C 10,0 C 6,1 C 91 % 1005,3 hPa 0,0 l/m 0 min 2 min 0 W/m 16,1 km/h (3 Bft) 97,87 %
01.10.2022 03:06 11,4 C 10,0 C 6,1 C 91 % 1005,4 hPa 0,0 l/m 0 min 2 min 0 W/m 16,1 km/h (3 Bft) 95,74 %
01.10.2022 03:04 11,4 C 10,0 C 6,7 C 91 % 1005,4 hPa 0,0 l/m 0 min 2 min 0 W/m 12,9 km/h (3 Bft) 95,65 %
01.10.2022 03:02 11,4 C 10,0 C 6,1 C 91 % 1005,5 hPa 0,0 l/m 0 min 2 min 0 W/m 19,3 km/h (3 Bft) 95,74 %
01.10.2022 03:00 11,5 C 10,0 C 6,1 C 91 % 1005,5 hPa 0,0 l/m 0 min 2 min 0 W/m 22,5 km/h (4 Bft) 97,87 %
_ Min-Zeit 05:26 03:00 03:00 19:02 06:46 - - - - 20:38 21:26
Minimum _ 10,8 C 10,0 C 6,1 C 77 % 1002,5 hPa - - - - 0,0 km/h (0 Bft) 66,67 %
_ Max-Zeit 14:08 14:00 14:06 06:00 02:14 15:40 10:10 12:08 14:00 07:22 03:24
Maximum _ 18,0 C 21,1 C 13,9 C 97 % 1015,1 hPa 1,0 l/m 2 min 4 min 787 W/m 41,8 km/h
S-SW (6 Bft)
100,00 %
Durchschnitt _ 13,2 C 12,5 C 8,5 C 91 % 1007,7 hPa #10,4 l/m #0 min. #0 min. 0 W/m 14,5 km/h (3 Bft) 97,50 %
© 2022 W. Hausmann